BG4WDV-11 Weather Reports


time (UTC)temp
C
wind
direction
speed
KPH
gust
KPH
rain 1hr
cm
rain 24hr
cm
rain mn
cm
humidity
%
barometer
mb
20260508065059 25 90 4.8 9.7 0.00 0.00 0.00 31 1017.0
20260508064959 25 180 4.8 9.7 0.00 0.00 0.00 31 1017.0
20260508064858 25 180 4.8 9.7 0.00 0.00 0.00 30 1017.0
20260508064758 26 90 6.4 9.7 0.00 0.00 0.00 30 1016.9
20260508064659 26 180 4.8 9.7 0.00 0.00 0.00 30 1017.1
20260508064558 26 90 3.2 9.7 0.00 0.00 0.00 30 1016.8
20260508064458 26 180 4.8 9.7 0.00 0.00 0.00 31 1017.0
20260508064358 26 90 4.8 9.7 0.00 0.00 0.00 31 1016.9
20260508064259 26 180 3.2 6.4 0.00 0.00 0.00 31 1016.9
20260508064158 26 90 0.0 6.4 0.00 0.00 0.00 31 1017.1
20260508064058 26 90 1.6 6.4 0.00 0.00 0.00 31 1016.9
20260508063959 26 0 3.2 8.0 0.00 0.00 0.00 31 1016.9
20260508063859 26 180 3.2 8.0 0.00 0.00 0.00 31 1017.0
20260508063758 26 180 1.6 8.0 0.00 0.00 0.00 32 1017.1
20260508063658 26 45 1.6 8.0 0.00 0.00 0.00 32 1017.1
20260508063559 26 45 4.8 8.0 0.00 0.00 0.00 31 1017.1
20260508063459 26 45 3.2 8.0 0.00 0.00 0.00 31 1017.0
20260508063358 26 45 1.6 9.7 0.00 0.00 0.00 31 1017.1
20260508063258 26 315 0.0 9.7 0.00 0.00 0.00 31 1017.2
20260508063159 26 180 1.6 9.7 0.00 0.00 0.00 31 1017.2
20260508063058 26 90 1.6 9.7 0.00 0.00 0.00 30 1017.1
20260508062958 25 45 0.0 9.7 0.00 0.00 0.00 30 1017.2
20260508062858 25 180 0.0 9.7 0.00 0.00 0.00 29 1017.2
20260508062759 25 225 3.2 9.7 0.00 0.00 0.00 29 1017.2
20260508062658 25 180 4.8 9.7 0.00 0.00 0.00 29 1017.2
20260508062558 25 180 4.8 9.7 0.00 0.00 0.00 29 1017.2
20260508062458 26 180 4.8 9.7 0.00 0.00 0.00 29 1017.3
20260508062359 26 180 3.2 8.0 0.00 0.00 0.00 29 1017.3
20260508062258 26 180 3.2 8.0 0.00 0.00 0.00 28 1017.4
20260508062158 26 90 3.2 8.0 0.00 0.00 0.00 29 1017.5
20260508062059 26 90 4.8 8.0 0.00 0.00 0.00 30 1017.4
20260508061958 26 90 4.8 8.0 0.00 0.00 0.00 30 1017.4
20260508061858 26 180 1.6 8.0 0.00 0.00 0.00 30 1017.3
20260508061758 26 90 0.0 8.0 0.00 0.00 0.00 30 1017.3
20260508061659 26 0 0.0 8.0 0.00 0.00 0.00 31 1017.3
20260508061558 26 45 0.0 8.0 0.00 0.00 0.00 31 1017.5
20260508061458 26 90 1.6 8.0 0.00 0.00 0.00 31 1017.4
20260508061358 26 180 3.2 8.0 0.00 0.00 0.00 30 1017.3
20260508061258 26 90 1.6 4.8 0.00 0.00 0.00 31 1017.4
20260508061158 26 0 1.6 9.7 0.00 0.00 0.00 31 1017.3
20260508061058 26 90 1.6 9.7 0.00 0.00 0.00 31 1017.4
20260508060959 26 225 1.6 9.7 0.00 0.00 0.00 30 1017.3
20260508060858 26 0 0.0 9.7 0.00 0.00 0.00 30 1017.4
20260508060758 26 180 0.0 9.7 0.00 0.00 0.00 29 1017.5
20260508060658 26 180 1.6 9.7 0.00 0.00 0.00 29 1017.4
20260508060558 26 180 3.2 9.7 0.00 0.00 0.00 29 1017.5
20260508060458 26 1 9.7 0.0 0.00 0.00 0.00 30 1017.6
20260508060358 26 0 4.8 9.7 0.00 0.00 0.00 30 1017.6
20260508060258 25 315 4.8 9.7 0.00 0.00 0.00 31 1017.6
20260508060158 26 90 4.8 8.0 0.00 0.00 0.00 30 1017.5
20260508060058 26 90 3.2 9.7 0.00 0.00 0.00 30 1017.7
20260508055958 26 180 0.0 9.7 0.00 0.00 0.00 31 1017.6
20260508055858 25 180 0.0 9.7 0.00 0.00 0.00 30 1017.6
20260508055758 26 90 1.6 9.7 0.00 0.00 0.00 30 1017.6
20260508055658 26 225 3.2 9.7 0.00 0.00 0.00 30 1017.6
20260508055558 26 0 1.6 9.7 0.00 0.00 0.00 29 1017.6
20260508055458 26 90 3.2 9.7 0.00 0.00 0.00 29 1017.6
20260508055358 26 180 4.8 9.7 0.00 0.00 0.00 29 1017.7
20260508055258 26 90 4.8 9.7 0.00 0.00 0.00 29 1017.7
20260508055158 26 180 1.6 9.7 0.00 0.00 0.00 30 1017.5
20260508055058 26 0 0.0 8.0 0.00 0.00 0.00 30 1017.6
20260508054958 26 315 0.0 8.0 0.00 0.00 0.00 30 1017.6
20260508054858 26 0 1.6 8.0 0.00 0.00 0.00 30 1017.7
20260508054758 26 180 3.2 8.0 0.00 0.00 0.00 31 1017.6
20260508054658 26 180 3.2 8.0 0.00 0.00 0.00 31 1017.6
20260508054558 26 180 3.2 8.0 0.00 0.00 0.00 31 1017.6
20260508054458 26 90 3.2 8.0 0.00 0.00 0.00 31 1017.7
20260508054358 26 90 1.6 8.0 0.00 0.00 0.00 33 1017.8
20260508054258 26 90 0.0 8.0 0.00 0.00 0.00 33 1017.7
20260508054158 26 225 0.0 8.0 0.00 0.00 0.00 32 1017.8
20260508054058 26 0 1.6 8.0 0.00 0.00 0.00 32 1017.7
20260508053958 26 45 0.0 8.0 0.00 0.00 0.00 31 1017.6
20260508053858 26 225 1.6 8.0 0.00 0.00 0.00 31 1017.7
20260508053758 26 0 1.6 8.0 0.00 0.00 0.00 31 1017.6
20260508053658 26 180 3.2 8.0 0.00 0.00 0.00 32 1017.8
20260508053558 26 90 3.2 8.0 0.00 0.00 0.00 32 1017.9
20260508053458 26 180 3.2 8.0 0.00 0.00 0.00 32 1017.7
20260508053358 26 180 3.2 6.4 0.00 0.00 0.00 32 1017.6
20260508053258 26 90 1.6 6.4 0.00 0.00 0.00 32 1017.8
20260508053158 26 45 1.6 6.4 0.00 0.00 0.00 32 1017.8
20260508053058 26 0 3.2 6.4 0.00 0.00 0.00 32 1017.8
20260508052958 26 180 3.2 6.4 0.00 0.00 0.00 31 1017.8
20260508052858 26 90 3.2 6.4 0.00 0.00 0.00 31 1017.7
20260508052758 26 180 1.6 6.4 0.00 0.00 0.00 32 1017.8
20260508052658 26 45 1.6 6.4 0.00 0.00 0.00 32 1017.7
20260508052558 26 45 1.6 6.4 0.00 0.00 0.00 31 1017.9
20260508052459 26 90 0.0 6.4 0.00 0.00 0.00 31 1017.7
20260508052358 26 225 0.0 6.4 0.00 0.00 0.00 31 1017.9
20260508052258 26 180 1.6 6.4 0.00 0.00 0.00 31 1017.9
20260508052158 26 225 1.6 6.4 0.00 0.00 0.00 31 1017.9
20260508052058 26 180 3.2 6.4 0.00 0.00 0.00 31 1018.0
20260508051958 26 45 1.6 6.4 0.00 0.00 0.00 30 1017.8
20260508051858 26 90 1.6 6.4 0.00 0.00 0.00 31 1018.0
20260508051759 26 90 1.6 6.4 0.00 0.00 0.00 31 1018.0
20260508051658 26 180 1.6 6.4 0.00 0.00 0.00 31 1018.0
20260508051558 26 90 1.6 6.4 0.00 0.00 0.00 32 1017.9
20260508051458 26 90 1.6 9.7 0.00 0.00 0.00 32 1018.1
20260508051359 25 90 0.0 9.7 0.00 0.00 0.00 32 1017.9
20260508051258 25 180 0.0 9.7 0.00 0.00 0.00 32 1018.0
20260508051158 25 45 1.6 9.7 0.00 0.00 0.00 32 1018.0
20260508051058 25 180 0.0 9.7 0.00 0.00 0.00 32 1018.0
20260508050959 25 90 0.0 9.7 0.00 0.00 0.00 32 1017.9
20260508050858 25 0 1.6 9.7 0.00 0.00 0.00 32 1017.9
20260508050758 25 45 3.2 9.7 0.00 0.00 0.00 31 1017.9
20260508050658 26 90 4.8 9.7 0.00 0.00 0.00 31 1018.0
20260508050558 26 0 4.8 9.7 0.00 0.00 0.00 32 1018.0
20260508050458 26 180 3.2 8.0 0.00 0.00 0.00 32 1017.9
20260508050358 26 45 1.6 8.0 0.00 0.00 0.00 33 1017.9
20260508050258 26 45 3.2 8.0 0.00 0.00 0.00 33 1017.9
20260508050158 26 90 3.2 8.0 0.00 0.00 0.00 33 1018.0
20260508050058 26 90 0.0 8.0 0.00 0.00 0.00 34 1017.9
20260508045958 25 180 1.6 8.0 0.00 0.00 0.00 33 1017.9
20260508045858 25 0 0.0 8.0 0.00 0.00 0.00 32 1017.8
20260508045758 25 180 0.0 8.0 0.00 0.00 0.00 32 1017.9
20260508045658 25 45 0.0 8.0 0.00 0.00 0.00 32 1017.9
20260508045558 25 0 1.6 8.0 0.00 0.00 0.00 33 1018.1
20260508045458 25 180 3.2 8.0 0.00 0.00 0.00 33 1017.8
20260508045358 25 180 3.2 8.0 0.00 0.00 0.00 34 1017.9
20260508045258 25 180 3.2 8.0 0.00 0.00 0.00 34 1017.9
20260508045158 25 180 3.2 8.0 0.00 0.00 0.00 35 1018.0
20260508045058 25 0 1.6 8.0 0.00 0.00 0.00 35 1018.0
20260508044958 25 45 1.6 8.0 0.00 0.00 0.00 35 1017.9
20260508044858 25 90 1.6 8.0 0.00 0.00 0.00 35 1018.0
20260508044758 25 45 1.6 8.0 0.00 0.00 0.00 35 1017.9
20260508044658 25 180 1.6 8.0 0.00 0.00 0.00 35 1018.1
20260508044558 25 180 3.2 8.0 0.00 0.00 0.00 34 1018.0
20260508044458 25 180 4.8 8.0 0.00 0.00 0.00 34 1018.0
20260508044358 25 90 4.8 8.0 0.00 0.00 0.00 34 1018.0
20260508044258 25 90 3.2 8.0 0.00 0.00 0.00 34 1018.0
20260508044158 24 180 3.2 8.0 0.00 0.00 0.00 34 1018.1
20260508044058 25 180 4.8 8.0 0.00 0.00 0.00 34 1018.1
20260508043958 25 90 4.8 8.0 0.00 0.00 0.00 35 1018.1
20260508043858 25 180 3.2 9.7 0.00 0.00 0.00 35 1018.1
20260508043758 25 180 1.6 9.7 0.00 0.00 0.00 35 1018.2
20260508043658 25 180 1.6 9.7 0.00 0.00 0.00 35 1018.1
20260508043558 25 180 3.2 9.7 0.00 0.00 0.00 35 1018.3
20260508043458 25 180 1.6 9.7 0.00 0.00 0.00 36 1018.2
20260508043358 24 0 1.6 9.7 0.00 0.00 0.00 36 1018.2
20260508043258 24 90 1.6 9.7 0.00 0.00 0.00 36 1018.3
20260508043158 24 45 3.2 9.7 0.00 0.00 0.00 35 1018.2
20260508043058 24 90 4.8 9.7 0.00 0.00 0.00 36 1018.2
20260508042958 24 90 4.8 9.7 0.00 0.00 0.00 35 1018.2
20260508042858 24 180 3.2 8.0 0.00 0.00 0.00 35 1018.4
20260508042758 24 180 3.2 8.0 0.00 0.00 0.00 35 1018.2
20260508042658 24 90 3.2 8.0 0.00 0.00 0.00 35 1018.3
20260508042558 24 90 1.6 8.0 0.00 0.00 0.00 35 1018.3
20260508042458 24 180 1.6 8.0 0.00 0.00 0.00 36 1018.2
20260508042358 24 180 3.2 8.0 0.00 0.00 0.00 36 1018.3
20260508042258 24 180 3.2 8.0 0.00 0.00 0.00 36 1018.4
20260508042158 24 45 1.6 9.7 0.00 0.00 0.00 36 1018.4
20260508042058 23 45 3.2 9.7 0.00 0.00 0.00 36 1018.2
20260508041958 23 0 3.2 9.7 0.00 0.00 0.00 37 1018.3
20260508041858 23 45 3.2 9.7 0.00 0.00 0.00 37 1018.4
20260508041758 23 45 1.6 9.7 0.00 0.00 0.00 36 1018.4
20260508041658 23 45 1.6 9.7 0.00 0.00 0.00 35 1018.3
20260508041558 23 45 0.0 9.7 0.00 0.00 0.00 35 1018.4
20260508041458 23 225 1.6 9.7 0.00 0.00 0.00 35 1018.4
20260508041358 24 180 4.8 9.7 0.00 0.00 0.00 35 1018.4
20260508041258 24 90 4.8 9.7 0.00 0.00 0.00 36 1018.3
20260508041157 24 180 4.8 9.7 0.00 0.00 0.00 36 1018.4
20260508041058 24 180 3.2 9.7 0.00 0.00 0.00 37 1018.5
20260508040958 24 0 1.6 9.7 0.00 0.00 0.00 36 1018.4
20260508040857 24 0 0.0 9.7 0.00 0.00 0.00 36 1018.4
20260508040758 24 180 1.6 9.7 0.00 0.00 0.00 36 1018.5
20260508040658 25 180 3.2 9.7 0.00 0.00 0.00 35 1018.5
20260508040558 25 90 4.8 9.7 0.00 0.00 0.00 36 1018.3
20260508040457 25 180 3.2 9.7 0.00 0.00 0.00 35 1018.6
20260508040358 25 315 0.0 9.7 0.00 0.00 0.00 36 1018.5
20260508040258 25 0 0.0 9.7 0.00 0.00 0.00 35 1018.8
20260508040158 25 90 1.6 9.7 0.00 0.00 0.00 34 1018.7
20260508040058 25 180 4.8 9.7 0.00 0.00 0.00 34 1018.8
20260508035958 25 180 4.8 9.7 0.00 0.00 0.00 35 1018.6
20260508035858 25 180 4.8 8.0 0.00 0.00 0.00 34 1018.7
20260508035758 25 180 1.6 6.4 0.00 0.00 0.00 35 1018.8
20260508035657 25 0 1.6 6.4 0.00 0.00 0.00 35 1018.8
20260508035558 24 180 1.6 6.4 0.00 0.00 0.00 35 1018.8
20260508035458 24 0 3.2 6.4 0.00 0.00 0.00 35 1018.8
20260508035358 24 180 4.8 6.4 0.00 0.00 0.00 35 1018.8
20260508035258 24 90 1.6 6.4 0.00 0.00 0.00 36 1018.9
20260508035158 24 90 1.6 6.4 0.00 0.00 0.00 36 1018.8
20260508035058 24 180 3.2 6.4 0.00 0.00 0.00 36 1018.7
20260508034958 24 45 3.2 8.0 0.00 0.00 0.00 36 1018.8
20260508034858 24 0 1.6 8.0 0.00 0.00 0.00 36 1019.0
20260508034758 24 90 0.0 8.0 0.00 0.00 0.00 36 1019.0
20260508034658 24 90 0.0 8.0 0.00 0.00 0.00 35 1018.9
20260508034558 24 180 1.6 8.0 0.00 0.00 0.00 36 1018.9
20260508034457 24 90 1.6 8.0 0.00 0.00 0.00 36 1018.9
20260508034358 25 90 1.6 8.0 0.00 0.00 0.00 36 1019.0
20260508034258 25 90 1.6 8.0 0.00 0.00 0.00 35 1019.0
20260508034158 25 315 3.2 8.0 0.00 0.00 0.00 35 1018.8
20260508034057 25 315 4.8 8.0 0.00 0.00 0.00 35 1018.9
20260508033957 25 45 3.2 8.0 0.00 0.00 0.00 36 1018.9
20260508033858 25 45 3.2 8.0 0.00 0.00 0.00 36 1018.9
20260508033758 25 45 3.2 8.0 0.00 0.00 0.00 36 1018.9
20260508033657 25 0 1.6 8.0 0.00 0.00 0.00 36 1018.9
20260508033557 25 45 1.6 8.0 0.00 0.00 0.00 36 1018.9
20260508033458 25 180 1.6 8.0 0.00 0.00 0.00 36 1019.0
20260508033358 25 0 0.0 8.0 0.00 0.00 0.00 36 1018.9
20260508033258 24 0 0.0 8.0 0.00 0.00 0.00 36 1019.0
20260508033157 24 0 1.6 8.0 0.00 0.00 0.00 36 1018.9
20260508033058 24 0 3.2 8.0 0.00 0.00 0.00 35 1019.0
20260508032958 24 90 3.2 8.0 0.00 0.00 0.00 35 1019.0
20260508032857 25 180 3.2 8.0 0.00 0.00 0.00 35 1019.1
20260508032757 24 180 3.2 8.0 0.00 0.00 0.00 37 1018.9
20260508032658 24 0 3.2 8.0 0.00 0.00 0.00 37 1019.0
20260508032558 24 45 1.6 8.0 0.00 0.00 0.00 37 1019.1
20260508032458 24 45 3.2 8.0 0.00 0.00 0.00 36 1019.0
20260508032357 24 90 4.8 8.0 0.00 0.00 0.00 36 1019.1
20260508032257 24 180 4.8 8.0 0.00 0.00 0.00 36 1019.1
20260508032158 25 90 4.8 8.0 0.00 0.00 0.00 36 1019.1
20260508032058 25 45 3.2 8.0 0.00 0.00 0.00 36 1019.1
20260508031957 25 180 4.8 8.0 0.00 0.00 0.00 37 1018.9
20260508031857 25 180 3.2 8.0 0.00 0.00 0.00 37 1019.0
20260508031758 25 180 3.2 8.0 0.00 0.00 0.00 37 1019.0
20260508031658 25 0 1.6 9.7 0.00 0.00 0.00 36 1019.0
20260508031557 24 315 0.0 9.7 0.00 0.00 0.00 36 1019.0
20260508031457 24 180 1.6 9.7 0.00 0.00 0.00 37 1019.0
20260508031357 24 0 3.2 9.7 0.00 0.00 0.00 37 1019.1
20260508031258 24 180 3.2 9.7 0.00 0.00 0.00 36 1019.1
20260508031158 24 90 3.2 9.7 0.00 0.00 0.00 36 1019.1
20260508031057 24 45 3.2 9.7 0.00 0.00 0.00 36 1019.2
20260508030957 23 90 1.6 9.7 0.00 0.00 0.00 36 1019.1
20260508030857 23 90 3.2 9.7 0.00 0.00 0.00 36 1019.1
20260508030758 23 90 4.8 9.7 0.00 0.00 0.00 37 1019.2
20260508030658 23 90 4.8 9.7 0.00 0.00 0.00 37 1019.1
20260508030557 24 90 4.8 9.7 0.00 0.00 0.00 37 1019.2
20260508030457 24 90 3.2 9.7 0.00 0.00 0.00 39 1019.2
20260508030357 23 0 1.6 8.0 0.00 0.00 0.00 39 1019.1
20260508030258 23 0 1.6 8.0 0.00 0.00 0.00 39 1019.2
20260508030157 23 45 1.6 8.0 0.00 0.00 0.00 38 1019.1
20260508025957 23 180 1.6 9.7 0.00 0.00 0.00 37 1019.2
20260508025858 23 90 3.2 9.7 0.00 0.00 0.00 37 1019.2
20260508025758 23 180 3.2 9.7 0.00 0.00 0.00 37 1019.2
20260508025657 23 180 3.2 9.7 0.00 0.00 0.00 37 1019.3
20260508025557 23 45 1.6 9.7 0.00 0.00 0.00 37 1019.1
20260508025457 23 90 0.0 9.7 0.00 0.00 0.00 38 1019.2
20260508025358 23 90 1.6 9.7 0.00 0.00 0.00 38 1019.1
20260508025258 23 180 4.8 9.7 0.00 0.00 0.00 38 1019.1
20260508025158 23 180 4.8 9.7 0.00 0.00 0.00 37 1019.1
20260508025058 23 90 4.8 9.7 0.00 0.00 0.00 36 1019.1
20260508024957 23 90 3.2 9.7 0.00 0.00 0.00 37 1019.2
20260508024858 23 90 1.6 9.7 0.00 0.00 0.00 38 1019.2
20260508024758 23 90 0.0 9.7 0.00 0.00 0.00 38 1019.1
20260508024658 23 90 0.0 9.7 0.00 0.00 0.00 37 1019.2
20260508024558 23 90 1.6 9.7 0.00 0.00 0.00 37 1019.2
20260508024457 23 180 3.2 9.7 0.00 0.00 0.00 37 1019.4
20260508024358 23 90 3.2 9.7 0.00 0.00 0.00 37 1019.4
20260508024258 23 90 3.2 9.7 0.00 0.00 0.00 37 1019.3
20260508024158 23 0 3.2 9.7 0.00 0.00 0.00 37 1019.3
20260508024058 23 180 3.2 9.7 0.00 0.00 0.00 37 1019.2
20260508023957 23 180 3.2 6.4 0.00 0.00 0.00 38 1019.3
20260508023858 23 180 0.0 6.4 0.00 0.00 0.00 39 1019.4
20260508023758 23 90 0.0 6.4 0.00 0.00 0.00 39 1019.5
20260508023658 23 225 0.0 6.4 0.00 0.00 0.00 39 1019.3
20260508023558 23 0 1.6 6.4 0.00 0.00 0.00 40 1019.4
20260508023457 23 180 3.2 8.0 0.00 0.00 0.00 40 1019.3
20260508023358 22 180 3.2 8.0 0.00 0.00 0.00 40 1019.3
20260508023258 22 180 3.2 8.0 0.00 0.00 0.00 41 1019.2
20260508023158 22 180 3.2 8.0 0.00 0.00 0.00 41 1019.4
20260508023057 22 180 1.6 8.0 0.00 0.00 0.00 41 1019.3
20260508022957 22 90 1.6 8.0 0.00 0.00 0.00 42 1019.3
20260508022858 22 0 1.6 8.0 0.00 0.00 0.00 41 1019.5
20260508022758 22 90 4.8 8.0 0.00 0.00 0.00 41 1019.4
20260508022658 22 90 4.8 8.0 0.00 0.00 0.00 40 1019.5
20260508022557 22 180 3.2 8.0 0.00 0.00 0.00 40 1019.4
20260508022457 22 45 3.2 8.0 0.00 0.00 0.00 39 1019.4
20260508022357 22 90 1.6 8.0 0.00 0.00 0.00 40 1019.4
20260508022258 22 90 1.6 8.0 0.00 0.00 0.00 40 1019.5
20260508022157 22 90 3.2 8.0 0.00 0.00 0.00 40 1019.4
20260508022057 22 90 1.6 8.0 0.00 0.00 0.00 41 1019.5
20260508021957 22 0 0.0 8.0 0.00 0.00 0.00 41 1019.5
20260508021857 22 90 1.6 8.0 0.00 0.00 0.00 40 1019.5
20260508021757 22 180 1.6 8.0 0.00 0.00 0.00 40 1019.6
20260508021657 22 0 3.2 8.0 0.00 0.00 0.00 40 1019.6
20260508021557 22 0 4.8 8.0 0.00 0.00 0.00 40 1019.4
20260508021457 22 180 3.2 6.4 0.00 0.00 0.00 39 1019.5
20260508021357 22 180 3.2 6.4 0.00 0.00 0.00 40 1019.7
20260508021257 22 180 1.6 6.4 0.00 0.00 0.00 40 1019.6
20260508021157 22 180 1.6 6.4 0.00 0.00 0.00 41 1019.7
20260508021058 23 180 1.6 6.4 0.00 0.00 0.00 41 1019.5
20260508020957 23 90 1.6 6.4 0.00 0.00 0.00 41 1019.6
20260508020857 23 180 1.6 6.4 0.00 0.00 0.00 41 1019.4
20260508020757 23 90 0.0 6.4 0.00 0.00 0.00 41 1019.5
20260508020657 23 45 3.2 6.4 0.00 0.00 0.00 39 1019.3
20260508020557 23 90 4.8 8.0 0.00 0.00 0.00 38 1019.6
20260508020457 23 180 3.2 9.7 0.00 0.00 0.00 39 1019.5
20260508020357 23 180 1.6 9.7 0.00 0.00 0.00 40 1019.7
20260508020257 23 180 1.6 9.7 0.00 0.00 0.00 41 1019.3
20260508020157 23 180 1.6 9.7 0.00 0.00 0.00 41 1019.4
20260508020057 23 90 1.6 9.7 0.00 0.00 0.00 41 1019.3
20260508015957 -17 194 9.7 0.0 0.00 0.00 0.00
20260508015857 22 0 1.6 9.7 0.00 0.00 0.00 41 1019.3
20260508015757 22 180 3.2 9.7 0.00 0.00 0.00 40 1019.6
20260508015657 22 180 4.8 9.7 0.00 0.00 0.00 41 1019.4
20260508015557 22 180 3.2 9.7 0.00 0.00 0.00 41 1019.4
20260508015457 22 90 3.2 8.0 0.00 0.00 0.00 42 1019.5
20260508015357 22 45 3.2 8.0 0.00 0.00 0.00 41 1019.4
20260508015257 22 90 1.6 6.4 0.00 0.00 0.00 41 1019.5
20260508015157 22 45 1.6 4.8 0.00 0.00 0.00 42 1019.6
20260508015057 22 180 1.6 4.8 0.00 0.00 0.00 42 1019.4
20260508014957 22 180 1.6 4.8 0.00 0.00 0.00 43 1019.4
20260508014857 22 180 3.2 4.8 0.00 0.00 0.00 44 1019.4
20260508014757 22 90 1.6 4.8 0.00 0.00 0.00 45 1019.5
20260508014657 22 180 0.0 4.8 0.00 0.00 0.00 46 1019.6
20260508014557 22 0 0.0 4.8 0.00 0.00 0.00 46 1019.6
20260508014457 22 45 0.0 4.8 0.00 0.00 0.00 46 1019.4
20260508014357 22 0 0.0 4.8 0.00 0.00 0.00 47 1019.4
20260508014257 22 180 0.0 4.8 0.00 0.00 0.00 48 1019.4
20260508014157 22 0 0.0 4.8 0.00 0.00 0.00 48 1019.4
20260508014057 22 180 1.6 4.8 0.00 0.00 0.00 49 1019.5
20260508013957 22 0 3.2 4.8 0.00 0.00 0.00 49 1019.4
20260508013857 22 90 1.6 4.8 0.00 0.00 0.00 49 1019.3
20260508013757 21 45 1.6 4.8 0.00 0.00 0.00 49 1019.4
20260508013657 21 0 0.0 4.8 0.00 0.00 0.00 50 1019.3
20260508013557 21 0 0.0 4.8 0.00 0.00 0.00 50 1019.4
20260508013457 21 45 0.0 4.8 0.00 0.00 0.00 50 1019.4
20260508013357 21 0 0.0 4.8 0.00 0.00 0.00 49 1019.3
20260508013257 20 180 1.6 4.8 0.00 0.00 0.00 48 1019.3
20260508013157 20 0 1.6 4.8 0.00 0.00 0.00 49 1019.3
20260508013057 20 180 1.6 4.8 0.00 0.00 0.00 48 1019.3
20260508012957 20 90 1.6 4.8 0.00 0.00 0.00 49 1019.4
20260508012857 20 90 1.6 4.8 0.00 0.00 0.00 52 1019.3
20260508012757 20 180 0.0 4.8 0.00 0.00 0.00 52 1019.3
20260508012657 20 45 0.0 4.8 0.00 0.00 0.00 52 1019.5
20260508012557 20 45 1.6 4.8 0.00 0.00 0.00 52 1019.3
20260508012457 20 315 3.2 4.8 0.00 0.00 0.00 51 1019.4
20260508012357 20 0 3.2 4.8 0.00 0.00 0.00 51 1019.5
20260508012257 21 0 3.2 4.8 0.00 0.00 0.00 52 1019.5
20260508012157 20 0 1.6 6.4 0.00 0.00 0.00 52 1019.3
20260508012057 20 0 1.6 6.4 0.00 0.00 0.00 53 1019.5
20260508011857 20 45 1.6 6.4 0.00 0.00 0.00 53 1019.3
20260508011757 20 90 1.6 6.4 0.00 0.00 0.00 53 1019.5
20260508011657 20 90 1.6 6.4 0.00 0.00 0.00 53 1019.4
20260508011557 20 45 1.6 6.4 0.00 0.00 0.00 53 1019.4
20260508011457 20 45 1.6 6.4 0.00 0.00 0.00 54 1019.5
20260508011357 20 0 3.2 8.0 0.00 0.00 0.00 53 1019.4
20260508011257 20 45 3.2 8.0 0.00 0.00 0.00 53 1019.4
20260508011157 20 0 3.2 8.0 0.00 0.00 0.00 53 1019.2
20260508011057 20 90 1.6 8.0 0.00 0.00 0.00 53 1019.3
20260508010957 20 0 1.6 8.0 0.00 0.00 0.00 54 1019.1
20260508010857 20 45 1.6 8.0 0.00 0.00 0.00 54 1019.2
20260508010757 20 45 3.2 8.0 0.00 0.00 0.00 54 1019.3
20260508010657 20 90 3.2 8.0 0.00 0.00 0.00 54 1019.4
20260508010557 20 45 3.2 8.0 0.00 0.00 0.00 53 1019.4
20260508010457 20 0 3.2 8.0 0.00 0.00 0.00 53 1019.3
20260508010357 20 45 3.2 8.0 0.00 0.00 0.00 53 1019.3
20260508010257 20 45 1.6 8.0 0.00 0.00 0.00 52 1019.4
20260508010157 20 0 0.0 8.0 0.00 0.00 0.00 52 1019.5
20260508010057 21 0 1.6 8.0 0.00 0.00 0.00 52 1019.4
20260508005957 21 0 1.6 8.0 0.00 0.00 0.00 52 1019.3
20260508005857 21 0 1.6 8.0 0.00 0.00 0.00 52 1019.4
20260508005757 21 45 1.6 8.0 0.00 0.00 0.00 52 1019.3
20260508005657 21 45 1.6 8.0 0.00 0.00 0.00 52 1019.4
20260508005556 -17 194 12.9 0.0 0.00 0.00 0.00
20260508005457 21 45 1.6 4.8 0.00 0.00 0.00 52 1019.3
20260508005357 21 0 0.0 6.4 0.00 0.00 0.00 52 1019.4
20260508005257 21 45 0.0 6.4 0.00 0.00 0.00 52 1019.5
20260508005157 21 90 0.0 6.4 0.00 0.00 0.00 53 1019.3
20260508005057 20 90 0.0 6.4 0.00 0.00 0.00 53 1019.1
20260508004957 20 90 0.0 6.4 0.00 0.00 0.00 53 1019.3
20260508004857 20 180 1.6 6.4 0.00 0.00 0.00 54 1019.3
20260508004757 20 45 1.6 6.4 0.00 0.00 0.00 53 1019.3
20260508004657 20 0 1.6 6.4 0.00 0.00 0.00 53 1019.2
20260508004557 20 0 3.2 6.4 0.00 0.00 0.00 53 1019.3
20260508004457 20 45 3.2 6.4 0.00 0.00 0.00 53 1019.3
20260508004357 20 0 1.6 6.4 0.00 0.00 0.00 54 1019.4
20260508004257 20 0 1.6 6.4 0.00 0.00 0.00 53 1019.4
20260508004157 20 0 1.6 6.4 0.00 0.00 0.00 52 1019.2
20260508004057 20 45 1.6 6.4 0.00 0.00 0.00 52 1019.2
20260508003957 21 45 1.6 6.4 0.00 0.00 0.00 52 1019.2
20260508003857 21 315 3.2 6.4 0.00 0.00 0.00 52 1019.2
20260508003757 21 45 1.6 6.4 0.00 0.00 0.00 53 1019.2
20260508003657 21 0 1.6 4.8 0.00 0.00 0.00 53 1019.2
20260508003556 21 0 1.6 4.8 0.00 0.00 0.00 53 1019.2
20260508003457 21 90 3.2 4.8 0.00 0.00 0.00 53 1019.1
20260508003357 21 45 1.6 4.8 0.00 0.00 0.00 53 1019.3
20260508003257 20 315 0.0 4.8 0.00 0.00 0.00 54 1019.1
20260508003157 20 0 0.0 4.8 0.00 0.00 0.00 53 1019.1
20260508003057 20 0 0.0 4.8 0.00 0.00 0.00 53 1019.2
20260508002957 20 90 0.0 4.8 0.00 0.00 0.00 54 1019.2
20260508002857 20 45 1.6 4.8 0.00 0.00 0.00 53 1019.3
20260508002757 20 45 0.0 4.8 0.00 0.00 0.00 54 1019.3
20260508002656 20 90 0.0 4.8 0.00 0.00 0.00 53 1019.2
20260508002557 20 0 1.6 4.8 0.00 0.00 0.00 53 1019.1
20260508002457 20 180 1.6 4.8 0.00 0.00 0.00 54 1019.0
20260508002357 20 180 0.0 4.8 0.00 0.00 0.00 55 1019.2
20260508002257 20 0 0.0 4.8 0.00 0.00 0.00 55 1019.0
20260508002156 20 45 0.0 4.8 0.00 0.00 0.00 55 1019.0
20260508002057 20 0 0.0 4.8 0.00 0.00 0.00 55 1019.2
20260508001957 20 0 0.0 4.8 0.00 0.00 0.00 55 1019.4
20260508001856 20 0 4.8 0.0 0.00 0.00 0.00 55 1019.2
20260508001757 20 180 0.0 4.8 0.00 0.00 0.00 55 1019.2
20260508001657 20 180 1.6 4.8 0.00 0.00 0.00 55 1019.2
20260508001557 20 180 3.2 4.8 0.00 0.00 0.00 55 1019.1
20260508001457 20 45 1.6 4.8 0.00 0.00 0.00 55 1019.4
20260508001357 20 90 0.0 4.8 0.00 0.00 0.00 56 1019.1
20260508001257 20 180 0.0 4.8 0.00 0.00 0.00 56 1019.3
20260508001156 19 180 0.0 4.8 0.00 0.00 0.00 57 1019.3
20260508001057 19 180 0.0 4.8 0.00 0.00 0.00 57 1019.2
20260508000957 19 180 0.0 4.8 0.00 0.00 0.00 57 1019.3
20260508000857 19 90 0.0 4.8 0.00 0.00 0.00 57 1019.2
20260508000757 18 90 1.6 4.8 0.00 0.00 0.00 57 1019.2
20260508000656 18 90 1.6 4.8 0.00 0.00 0.00 57 1019.3
20260508000556 18 90 1.6 4.8 0.00 0.00 0.00 57 1019.2
20260508000457 18 0 1.6 4.8 0.00 0.00 0.00 57 1019.3
20260508000357 18 45 1.6 6.4 0.00 0.00 0.00 56 1019.3
20260508000257 18 90 1.6 6.4 0.00 0.00 0.00 55 1019.2
20260508000156 18 315 0.0 6.4 0.00 0.00 0.00 55 1019.2
20260508000057 19 45 1.6 6.4 0.00 0.00 0.00 55 1019.4
20260507235957 19 45 1.6 6.4 0.00 0.00 0.00 54 1019.4
20260507235857 18 0 1.6 6.4 0.00 0.00 0.00 53 1019.3
20260507235757 18 180 1.6 6.4 0.00 0.00 0.00 53 1019.4
20260507235656 18 180 1.6 6.4 0.00 0.00 0.00 53 1019.3
20260507235556 18 180 3.2 6.4 0.00 0.00 0.00 53 1019.4
20260507235457 19 180 1.6 6.4 0.00 0.00 0.00 53 1019.4
20260507235357 19 180 0.0 6.4 0.00 0.00 0.00 54 1019.2
20260507235256 19 180 1.6 6.4 0.00 0.00 0.00 53 1019.2
20260507235156 19 180 3.2 6.4 0.00 0.00 0.00 53 1019.2
20260507235056 19 180 3.2 6.4 0.00 0.00 0.00 54 1019.1
20260507234957 19 180 1.6 6.4 0.00 0.00 0.00 55 1019.2
20260507234857 19 90 0.0 6.4 0.00 0.00 0.00 54 1019.2
20260507234756 19 90 0.0 6.4 0.00 0.00 0.00 54 1019.2
20260507234656 19 180 0.0 6.4 0.00 0.00 0.00 54 1019.3
20260507234557 19 0 0.0 6.4 0.00 0.00 0.00 53 1019.1
20260507234457 19 90 0.0 6.4 0.00 0.00 0.00 53 1019.3
20260507234357 19 180 1.6 6.4 0.00 0.00 0.00 53 1019.1
20260507234256 19 90 1.6 6.4 0.00 0.00 0.00 54 1019.0
20260507234156 19 90 3.2 6.4 0.00 0.00 0.00 55 1019.1
20260507234057 18 180 1.6 6.4 0.00 0.00 0.00 55 1018.9
20260507233957 18 90 0.0 6.4 0.00 0.00 0.00 55 1018.9
20260507233856 18 180 1.6 6.4 0.00 0.00 0.00 54 1018.9
20260507233756 18 180 3.2 6.4 0.00 0.00 0.00 54 1018.7
20260507233657 18 45 3.2 6.4 0.00 0.00 0.00 54 1018.8
20260507233557 18 180 3.2 6.4 0.00 0.00 0.00 54 1019.1
20260507233456 18 90 3.2 6.4 0.00 0.00 0.00 54 1018.9
20260507233256 18 90 1.6 6.4 0.00 0.00 0.00 54 1018.9
20260507233157 18 180 1.6 6.4 0.00 0.00 0.00 55 1019.0
20260507233056 18 90 1.6 6.4 0.00 0.00 0.00 55 1018.9
20260507232956 18 180 1.6 6.4 0.00 0.00 0.00 56 1018.9
20260507232856 18 180 1.6 6.4 0.00 0.00 0.00 56 1018.9
20260507232756 18 180 0.0 4.8 0.00 0.00 0.00 56 1018.8
20260507232657 18 180 0.0 4.8 0.00 0.00 0.00 56 1018.8
20260507232556 18 180 1.6 4.8 0.00 0.00 0.00 57 1019.1
20260507232456 18 180 1.6 6.4 0.00 0.00 0.00 58 1019.2
20260507232356 18 90 0.0 6.4 0.00 0.00 0.00 59 1018.8
20260507232256 18 180 1.6 6.4 0.00 0.00 0.00 59 1018.8
20260507232156 18 90 1.6 6.4 0.00 0.00 0.00 59 1018.9
20260507232056 18 180 1.6 6.4 0.00 0.00 0.00 60 1018.5
20260507231956 18 180 0.0 6.4 0.00 0.00 0.00 60 1018.8
20260507231856 18 180 0.0 6.4 0.00 0.00 0.00 59 1018.8
20260507231756 18 90 1.6 6.4 0.00 0.00 0.00 59 1019.1
20260507231656 18 90 3.2 6.4 0.00 0.00 0.00 59 1018.9
20260507231556 18 180 3.2 6.4 0.00 0.00 0.00 60 1018.6
20260507231456 18 180 3.2 6.4 0.00 0.00 0.00 61 1018.7
20260507231356 18 180 3.2 4.8 0.00 0.00 0.00 61 1018.5
20260507231256 18 180 1.6 4.8 0.00 0.00 0.00 62 1018.4
20260507231156 18 0 0.0 4.8 0.00 0.00 0.00 63 1018.5
20260507231056 17 180 1.6 4.8 0.00 0.00 0.00 64 1018.5
20260507230956 17 180 1.6 4.8 0.00 0.00 0.00 64 1018.4
20260507230856 17 180 1.6 4.8 0.00 0.00 0.00 64 1018.4
20260507230756 17 180 0.0 4.8 0.00 0.00 0.00 65 1018.4
20260507230656 17 180 1.6 4.8 0.00 0.00 0.00 65 1018.5
20260507230556 17 180 0.0 4.8 0.00 0.00 0.00 65 1018.4
20260507230456 17 180 0.0 4.8 0.00 0.00 0.00 65 1018.5
20260507230356 17 180 1.6 4.8 0.00 0.00 0.00 65 1018.5
20260507230256 17 180 1.6 4.8 0.00 0.00 0.00 65 1018.7
20260507230156 16 180 1.6 4.8 0.00 0.00 0.00 65 1018.7
20260507230056 16 180 1.6 4.8 0.00 0.00 0.00 65 1018.5
20260507225956 16 180 1.6 4.8 0.00 0.00 0.00 65 1018.3
20260507225856 16 180 1.6 4.8 0.00 0.00 0.00 66 1018.6
20260507225756 16 90 1.6 4.8 0.00 0.00 0.00 66 1018.5
20260507225656 16 180 3.2 4.8 0.00 0.00 0.00 66 1018.8
20260507225556 16 180 3.2 4.8 0.00 0.00 0.00 67 1018.5
20260507225456 16 180 1.6 4.8 0.00 0.00 0.00 67 1018.5
20260507225356 16 180 1.6 4.8 0.00 0.00 0.00 68 1018.7
20260507225256 16 90 0.0 4.8 0.00 0.00 0.00 69 1018.7
20260507225156 16 0 0.0 3.2 0.00 0.00 0.00 70 1018.7
20260507225056 16 180 0.0 3.2 0.00 0.00 0.00 70 1018.3
20260507224956 16 180 0.0 3.2 0.00 0.00 0.00 70 1018.2
20260507224856 16 180 1.6 3.2 0.00 0.00 0.00 70 1018.5
20260507224756 16 180 1.6 3.2 0.00 0.00 0.00 70 1018.6
20260507224656 16 180 1.6 3.2 0.00 0.00 0.00 71 1018.6
20260507224556 16 180 0.0 3.2 0.00 0.00 0.00 71 1018.1
20260507224456 16 180 0.0 3.2 0.00 0.00 0.00 71 1018.3
20260507224356 16 180 0.0 3.2 0.00 0.00 0.00 71 1018.7
20260507224256 16 90 0.0 3.2 0.00 0.00 0.00 71 1018.3
20260507224156 16 180 0.0 3.2 0.00 0.00 0.00 72 1018.6
20260507224056 16 0 0.0 3.2 0.00 0.00 0.00 72 1018.5
20260507223956 16 180 0.0 3.2 0.00 0.00 0.00 72 1018.5
20260507223856 16 180 0.0 3.2 0.00 0.00 0.00 72 1018.5
20260507223756 15 180 0.0 3.2 0.00 0.00 0.00 72 1018.5
20260507223656 15 0 0.0 3.2 0.00 0.00 0.00 72 1018.6
20260507223556 15 90 0.0 4.8 0.00 0.00 0.00 72 1018.5
20260507223456 15 90 0.0 4.8 0.00 0.00 0.00 73 1018.5
20260507223357 15 180 0.0 4.8 0.00 0.00 0.00 73 1018.7
20260507223256 15 180 0.0 4.8 0.00 0.00 0.00 73 1018.7
20260507223156 15 90 0.0 4.8 0.00 0.00 0.00 73 1018.6
20260507223056 15 0 0.0 4.8 0.00 0.00 0.00 73 1018.6
20260507222956 15 180 0.0 4.8 0.00 0.00 0.00 73 1018.7
20260507222856 15 90 0.0 4.8 0.00 0.00 0.00 73 1018.6
20260507222756 15 180 1.6 4.8 0.00 0.00 0.00 73 1018.8
20260507222656 15 180 3.2 4.8 0.00 0.00 0.00 73 1018.5
20260507222556 15 180 1.6 4.8 0.00 0.00 0.00 73 1018.6
20260507222456 15 180 1.6 4.8 0.00 0.00 0.00 73 1018.6
20260507222356 15 180 0.0 4.8 0.00 0.00 0.00 73 1018.4
20260507222256 -17 185 12.9 0.0 0.00 0.00 0.00
20260507222156 15 0 0.0 3.2 0.00 0.00 0.00 73 1018.6
20260507222056 15 180 0.0 3.2 0.00 0.00 0.00 73 1018.5
20260507221956 15 90 0.0 4.8 0.00 0.00 0.00 74 1018.5
20260507221856 15 315 0.0 4.8 0.00 0.00 0.00 74 1018.5
20260507221756 15 180 0.0 4.8 0.00 0.00 0.00 74 1018.5
20260507221656 15 180 0.0 4.8 0.00 0.00 0.00 74 1018.4
20260507221556 15 0 4.8 0.0 0.00 0.00 0.00 74 1018.4
20260507221456 15 180 0.0 4.8 0.00 0.00 0.00 74 1018.4
20260507221356 15 90 0.0 4.8 0.00 0.00 0.00 74 1018.4
20260507221256 -17 186 14.5 0.0 0.00 0.00 0.00
20260507221156 15 180 0.0 4.8 0.00 0.00 0.00 74 1018.4
20260507221056 15 90 0.0 4.8 0.00 0.00 0.00 74 1018.4
20260507220956 15 90 0.0 3.2 0.00 0.00 0.00 74 1018.5
20260507220856 15 90 0.0 4.8 0.00 0.00 0.00 74 1018.6
20260507220756 15 180 0.0 4.8 0.00 0.00 0.00 74 1018.5
20260507220656 15 180 0.0 4.8 0.00 0.00 0.00 74 1018.4
20260507220556 15 90 0.0 4.8 0.00 0.00 0.00 74 1018.5
20260507220456 15 90 0.0 4.8 0.00 0.00 0.00 74 1018.4
20260507220356 15 180 0.0 4.8 0.00 0.00 0.00 74 1018.3
20260507220256 15 180 0.0 4.8 0.00 0.00 0.00 74 1018.4
20260507220156 15 0 0.0 4.8 0.00 0.00 0.00 75 1018.4
20260507220056 15 0 0.0 4.8 0.00 0.00 0.00 75 1018.5
20260507215956 15 90 0.0 4.8 0.00 0.00 0.00 75 1018.6
20260507215856 15 0 0.0 1.6 0.00 0.00 0.00 75 1018.4
20260507215756 15 90 0.0 1.6 0.00 0.00 0.00 75 1018.4
20260507215656 15 180 0.0 1.6 0.00 0.00 0.00 75 1018.4
20260507215556 15 180 0.0 1.6 0.00 0.00 0.00 75 1018.4
20260507215456 15 180 0.0 1.6 0.00 0.00 0.00 75 1018.6
20260507215356 15 180 0.0 1.6 0.00 0.00 0.00 75 1018.4
20260507215256 15 90 0.0 1.6 0.00 0.00 0.00 75 1018.6
20260507215156 15 90 0.0 1.6 0.00 0.00 0.00 75 1018.6
20260507215056 15 180 0.0 1.6 0.00 0.00 0.00 75 1018.5
20260507214956 15 0 0.0 1.6 0.00 0.00 0.00 75 1018.5
20260507214856 15 90 0.0 1.6 0.00 0.00 0.00 75 1018.5
20260507214756 15 180 0.0 1.6 0.00 0.00 0.00 75 1018.4
20260507214656 15 180 0.0 1.6 0.00 0.00 0.00 75 1018.5
20260507214556 15 180 0.0 1.6 0.00 0.00 0.00 75 1018.5
20260507214456 15 180 0.0 1.6 0.00 0.00 0.00 75 1018.4
20260507214356 15 180 0.0 1.6 0.00 0.00 0.00 75 1018.5
20260507214256 15 90 0.0 1.6 0.00 0.00 0.00 75 1018.4
20260507214156 15 180 0.0 1.6 0.00 0.00 0.00 75 1018.4
20260507214056 15 180 0.0 1.6 0.00 0.00 0.00 75 1018.3
20260507213956 15 180 0.0 3.2 0.00 0.00 0.00 75 1018.4
20260507213856 15 180 0.0 3.2 0.00 0.00 0.00 75 1018.3
20260507213756 15 90 0.0 3.2 0.00 0.00 0.00 75 1018.3
20260507213656 15 180 0.0 3.2 0.00 0.00 0.00 75 1018.4
20260507213556 15 180 0.0 4.8 0.00 0.00 0.00 75 1018.3
20260507213456 15 180 0.0 4.8 0.00 0.00 0.00 75 1018.3
20260507213356 15 180 0.0 4.8 0.00 0.00 0.00 75 1018.2
20260507213256 15 180 0.0 4.8 0.00 0.00 0.00 75 1018.2
20260507213156 15 90 0.0 4.8 0.00 0.00 0.00 75 1018.2
20260507213056 15 90 0.0 4.8 0.00 0.00 0.00 75 1018.1
20260507212956 15 180 0.0 4.8 0.00 0.00 0.00 75 1018.0
20260507212856 15 180 0.0 4.8 0.00 0.00 0.00 75 1018.2
20260507212756 15 180 0.0 4.8 0.00 0.00 0.00 75 1018.0
20260507212656 15 180 0.0 4.8 0.00 0.00 0.00 75 1018.1
20260507212556 15 180 0.0 4.8 0.00 0.00 0.00 75 1018.1
20260507212456 15 180 1.6 4.8 0.00 0.00 0.00 75 1018.2
20260507212356 15 180 1.6 4.8 0.00 0.00 0.00 75 1018.1
20260507212256 15 90 1.6 4.8 0.00 0.00 0.00 75 1018.1
20260507212156 15 180 0.0 4.8 0.00 0.00 0.00 75 1018.1
20260507212056 15 180 0.0 4.8 0.00 0.00 0.00 75 1018.0
20260507211956 15 180 0.0 4.8 0.00 0.00 0.00 75 1018.0
20260507211856 15 180 0.0 4.8 0.00 0.00 0.00 75 1018.0
20260507211756 15 180 0.0 4.8 0.00 0.00 0.00 75 1018.0
20260507211656 15 180 1.6 4.8 0.00 0.00 0.00 75 1018.2
20260507211556 15 180 0.0 4.8 0.00 0.00 0.00 75 1018.0
20260507211456 15 180 0.0 4.8 0.00 0.00 0.00 75 1018.0
20260507211356 15 180 0.0 4.8 0.00 0.00 0.00 75 1018.1
20260507211256 15 90 0.0 4.8 0.00 0.00 0.00 75 1018.1
20260507211156 15 180 0.0 4.8 0.00 0.00 0.00 75 1018.0
20260507211056 15 180 0.0 4.8 0.00 0.00 0.00 75 1018.0
20260507210956 15 180 0.0 4.8 0.00 0.00 0.00 75 1017.9
20260507210856 15 180 0.0 4.8 0.00 0.00 0.00 75 1017.9
20260507210756 15 180 0.0 4.8 0.00 0.00 0.00 75 1017.9
20260507210656 15 180 0.0 3.2 0.00 0.00 0.00 75 1017.9
20260507210556 15 180 0.0 3.2 0.00 0.00 0.00 75 1017.9
20260507210456 15 45 0.0 3.2 0.00 0.00 0.00 75 1017.9
20260507210356 15 90 0.0 3.2 0.00 0.00 0.00 75 1017.9
20260507210256 15 0 0.0 4.8 0.00 0.00 0.00 75 1018.0
20260507210156 15 45 0.0 4.8 0.00 0.00 0.00 75 1017.9
20260507210056 15 180 0.0 4.8 0.00 0.00 0.00 75 1018.0
20260507205956 15 180 0.0 4.8 0.00 0.00 0.00 75 1018.0
20260507205856 15 180 0.0 4.8 0.00 0.00 0.00 75 1017.9
20260507205755 15 90 0.0 4.8 0.00 0.00 0.00 75 1018.0
20260507205656 15 180 0.0 4.8 0.00 0.00 0.00 75 1018.1
20260507205556 15 90 0.0 4.8 0.00 0.00 0.00 75 1018.0
20260507205455 -17 181 19.3 0.0 0.00 0.00 0.00
20260507205356 15 180 1.6 4.8 0.00 0.00 0.00 75 1018.0
20260507205256 15 180 1.6 4.8 0.00 0.00 0.00 75 1017.9
20260507205155 15 180 0.0 4.8 0.00 0.00 0.00 75 1018.1
20260507205056 15 180 0.0 4.8 0.00 0.00 0.00 75 1017.9
20260507204956 15 225 0.0 3.2 0.00 0.00 0.00 75 1017.8
20260507204856 15 180 0.0 3.2 0.00 0.00 0.00 75 1018.0
20260507204756 15 180 0.0 3.2 0.00 0.00 0.00 75 1017.7
20260507204656 15 180 0.0 4.8 0.00 0.00 0.00 75 1017.8
20260507204556 15 180 1.6 4.8 0.00 0.00 0.00 75 1017.9
20260507204456 15 180 1.6 4.8 0.00 0.00 0.00 75 1017.7
20260507204356 15 180 0.0 4.8 0.00 0.00 0.00 75 1017.7
20260507204256 15 180 0.0 4.8 0.00 0.00 0.00 75 1017.8
20260507204155 15 180 0.0 4.8 0.00 0.00 0.00 75 1017.9
20260507204055 15 90 0.0 4.8 0.00 0.00 0.00 75 1017.7
20260507203955 15 180 0.0 4.8 0.00 0.00 0.00 75 1017.7
20260507203856 15 180 1.6 4.8 0.00 0.00 0.00 75 1017.7
20260507203756 15 180 1.6 4.8 0.00 0.00 0.00 75 1017.8
20260507203656 15 180 0.0 4.8 0.00 0.00 0.00 75 1017.9
20260507203556 15 90 1.6 4.8 0.00 0.00 0.00 75 1017.9
20260507203455 15 180 0.0 4.8 0.00 0.00 0.00 75 1018.0
20260507203356 15 180 0.0 4.8 0.00 0.00 0.00 75 1017.8
20260507203255 15 90 0.0 4.8 0.00 0.00 0.00 75 1017.7
20260507203156 15 180 0.0 4.8 0.00 0.00 0.00 75 1017.8
20260507203055 15 0 0.0 4.8 0.00 0.00 0.00 75 1018.0
20260507202955 15 90 0.0 4.8 0.00 0.00 0.00 75 1017.8
20260507202855 15 90 0.0 4.8 0.00 0.00 0.00 75 1017.9
20260507202755 15 90 0.0 3.2 0.00 0.00 0.00 75 1017.8
20260507202656 15 180 0.0 3.2 0.00 0.00 0.00 75 1017.9
20260507202556 15 0 0.0 3.2 0.00 0.00 0.00 75 1017.9
20260507202456 15 180 0.0 3.2 0.00 0.00 0.00 75 1017.9
20260507202356 15 180 0.0 3.2 0.00 0.00 0.00 75 1017.9
20260507202256 15 180 0.0 3.2 0.00 0.00 0.00 75 1017.8
20260507202155 15 180 0.0 3.2 0.00 0.00 0.00 75 1017.8
20260507202055 15 180 0.0 3.2 0.00 0.00 0.00 75 1017.7
20260507201955 15 180 0.0 3.2 0.00 0.00 0.00 75 1017.7
20260507201855 15 180 1.6 3.2 0.00 0.00 0.00 75 1017.7
20260507201755 15 180 0.0 3.2 0.00 0.00 0.00 75 1017.9
20260507201655 15 0 0.0 3.2 0.00 0.00 0.00 75 1017.8
20260507201556 15 90 0.0 3.2 0.00 0.00 0.00 75 1017.7
20260507201456 15 180 0.0 3.2 0.00 0.00 0.00 75 1018.0
20260507201356 15 180 0.0 3.2 0.00 0.00 0.00 74 1017.9
20260507201255 15 180 0.0 3.2 0.00 0.00 0.00 74 1017.8
20260507201155 15 180 0.0 3.2 0.00 0.00 0.00 74 1017.9
20260507201055 15 90 0.0 4.8 0.00 0.00 0.00 74 1017.7
20260507200955 15 180 0.0 4.8 0.00 0.00 0.00 74 1017.7
20260507200855 15 180 0.0 4.8 0.00 0.00 0.00 74 1017.7
20260507200755 15 180 0.0 4.8 0.00 0.00 0.00 74 1017.7
20260507200655 15 180 0.0 4.8 0.00 0.00 0.00 74 1017.8
20260507200556 15 180 0.0 4.8 0.00 0.00 0.00 74 1017.7
20260507200456 15 90 0.0 4.8 0.00 0.00 0.00 74 1017.7
20260507200356 15 180 0.0 4.8 0.00 0.00 0.00 74 1017.8
20260507200256 15 180 0.0 4.8 0.00 0.00 0.00 74 1017.7
20260507200155 15 180 1.6 4.8 0.00 0.00 0.00 74 1017.8
20260507200055 15 90 1.6 4.8 0.00 0.00 0.00 74 1017.6
20260507195955 15 180 0.0 4.8 0.00 0.00 0.00 74 1017.7
20260507195855 15 90 0.0 4.8 0.00 0.00 0.00 74 1017.7
20260507195755 15 90 0.0 4.8 0.00 0.00 0.00 74 1017.8
20260507195655 15 90 1.6 4.8 0.00 0.00 0.00 74 1017.7
20260507195555 15 90 1.6 4.8 0.00 0.00 0.00 74 1017.7
20260507195455 15 180 0.0 4.8 0.00 0.00 0.00 74 1017.6
20260507195356 15 0 0.0 4.8 0.00 0.00 0.00 75 1017.6
20260507195255 15 180 1.6 4.8 0.00 0.00 0.00 75 1017.5
20260507195156 15 180 0.0 4.8 0.00 0.00 0.00 75 1017.6
20260507195055 15 90 1.6 4.8 0.00 0.00 0.00 75 1017.6
20260507194955 15 90 1.6 4.8 0.00 0.00 0.00 75 1017.6
20260507194855 15 180 0.0 4.8 0.00 0.00 0.00 75 1017.6
20260507194755 15 90 0.0 3.2 0.00 0.00 0.00 75 1017.6
20260507194655 15 180 0.0 3.2 0.00 0.00 0.00 75 1017.6
20260507194555 15 180 0.0 3.2 0.00 0.00 0.00 75 1017.6
20260507194455 15 180 0.0 3.2 0.00 0.00 0.00 74 1017.5
20260507194356 15 180 0.0 3.2 0.00 0.00 0.00 74 1017.7
20260507194255 15 180 0.0 3.2 0.00 0.00 0.00 74 1017.6
20260507194155 15 180 0.0 3.2 0.00 0.00 0.00 74 1017.6
20260507194055 15 0 0.0 3.2 0.00 0.00 0.00 74 1017.6
20260507193955 15 0 3.2 0.0 0.00 0.00 0.00 74 1017.8
20260507193855 15 180 0.0 3.2 0.00 0.00 0.00 74 1017.7
20260507193755 15 180 0.0 3.2 0.00 0.00 0.00 74 1017.6
20260507193655 15 180 0.0 3.2 0.00 0.00 0.00 74 1017.6
20260507193555 15 180 0.0 3.2 0.00 0.00 0.00 74 1017.6
20260507193455 15 180 0.0 3.2 0.00 0.00 0.00 74 1017.5
20260507193355 15 180 0.0 4.8 0.00 0.00 0.00 74 1017.4
20260507193255 15 180 0.0 4.8 0.00 0.00 0.00 74 1017.5
20260507193155 15 225 0.0 4.8 0.00 0.00 0.00 74 1017.6
20260507193055 15 225 0.0 4.8 0.00 0.00 0.00 74 1017.7
20260507192955 15 90 0.0 4.8 0.00 0.00 0.00 74 1017.6
20260507192855 15 180 0.0 4.8 0.00 0.00 0.00 74 1017.5
20260507192755 15 0 0.0 4.8 0.00 0.00 0.00 74 1017.6
20260507192655 15 0 0.0 4.8 0.00 0.00 0.00 74 1017.6
20260507192555 15 90 0.0 4.8 0.00 0.00 0.00 74 1017.5
20260507192455 15 180 0.0 4.8 0.00 0.00 0.00 74 1017.6
20260507192355 15 180 0.0 3.2 0.00 0.00 0.00 74 1017.4
20260507192255 15 180 0.0 3.2 0.00 0.00 0.00 74 1017.4
20260507192155 15 90 0.0 3.2 0.00 0.00 0.00 74 1017.3
20260507192055 15 180 0.0 3.2 0.00 0.00 0.00 74 1017.5
20260507191955 15 225 0.0 3.2 0.00 0.00 0.00 74 1017.3
20260507191855 15 225 0.0 3.2 0.00 0.00 0.00 74 1017.4
20260507191756 15 0 0.0 3.2 0.00 0.00 0.00 74 1017.4
20260507191656 15 180 0.0 3.2 0.00 0.00 0.00 74 1017.5
20260507191556 15 0 0.0 3.2 0.00 0.00 0.00 74 1017.5
20260507191455 15 180 0.0 3.2 0.00 0.00 0.00 74 1017.6
20260507191355 15 180 0.0 3.2 0.00 0.00 0.00 74 1017.6
20260507191255 15 0 0.0 3.2 0.00 0.00 0.00 74 1017.4
20260507191155 15 180 0.0 3.2 0.00 0.00 0.00 74 1017.5
20260507191055 15 180 0.0 3.2 0.00 0.00 0.00 74 1017.6
20260507190956 15 180 0.0 3.2 0.00 0.00 0.00 74 1017.5
20260507190856 15 180 0.0 3.2 0.00 0.00 0.00 74 1017.5
20260507190756 15 45 0.0 3.2 0.00 0.00 0.00 74 1017.6
20260507190656 15 180 0.0 3.2 0.00 0.00 0.00 74 1017.4
20260507190556 15 90 0.0 3.2 0.00 0.00 0.00 74 1017.6
20260507190455 15 90 0.0 3.2 0.00 0.00 0.00 74 1017.4
20260507190355 15 0 0.0 3.2 0.00 0.00 0.00 74 1017.4
20260507190255 15 180 0.0 3.2 0.00 0.00 0.00 74 1017.4
20260507190155 15 0 0.0 3.2 0.00 0.00 0.00 74 1017.4
20260507190055 15 180 0.0 3.2 0.00 0.00 0.00 74 1017.4
20260507185955 15 45 0.0 3.2 0.00 0.00 0.00 74 1017.4
20260507185855 15 180 0.0 1.6 0.00 0.00 0.00 74 1017.3
20260507185756 15 180 0.0 4.8 0.00 0.00 0.00 74 1017.4
20260507185656 15 180 0.0 4.8 0.00 0.00 0.00 73 1017.3
20260507185556 15 0 0.0 4.8 0.00 0.00 0.00 73 1017.3
20260507185455 15 90 0.0 4.8 0.00 0.00 0.00 73 1017.2
20260507185355 15 180 0.0 4.8 0.00 0.00 0.00 73 1017.4
20260507185255 15 45 0.0 4.8 0.00 0.00 0.00 73 1017.3
20260507185155 15 180 0.0 4.8 0.00 0.00 0.00 73 1017.4
20260507185055 15 90 0.0 4.8 0.00 0.00 0.00 73 1017.2
20260507184955 15 0 0.0 4.8 0.00 0.00 0.00 73 1017.2
20260507184855 15 90 1.6 6.4 0.00 0.00 0.00 73 1017.3
20260507184755 15 90 1.6 6.4 0.00 0.00 0.00 73 1017.5
20260507184655 15 180 0.0 6.4 0.00 0.00 0.00 73 1017.2
20260507184556 15 180 0.0 6.4 0.00 0.00 0.00 73 1017.2
20260507184456 15 225 0.0 6.4 0.00 0.00 0.00 73 1017.3
20260507184355 15 225 0.0 6.4 0.00 0.00 0.00 73 1017.3
20260507184255 15 0 0.0 6.4 0.00 0.00 0.00 73 1017.2
20260507184155 15 225 0.0 6.4 0.00 0.00 0.00 73 1017.2
20260507184055 15 180 0.0 6.4 0.00 0.00 0.00 73 1017.3
20260507183955 15 180 0.0 6.4 0.00 0.00 0.00 73 1017.2
20260507183855 15 180 0.0 4.8 0.00 0.00 0.00 73 1017.2
20260507183755 15 90 0.0 4.8 0.00 0.00 0.00 73 1017.2
20260507183655 15 180 0.0 4.8 0.00 0.00 0.00 73 1017.3
20260507183555 15 180 0.0 4.8 0.00 0.00 0.00 73 1017.2
20260507183455 15 180 0.0 4.8 0.00 0.00 0.00 73 1017.2
20260507183355 15 0 0.0 4.8 0.00 0.00 0.00 73 1017.4
20260507183255 15 315 0.0 4.8 0.00 0.00 0.00 73 1017.3
20260507183155 15 180 0.0 4.8 0.00 0.00 0.00 73 1017.2
20260507183055 15 180 0.0 4.8 0.00 0.00 0.00 73 1017.2
20260507182955 15 90 1.6 4.8 0.00 0.00 0.00 73 1017.2
20260507182855 15 90 1.6 4.8 0.00 0.00 0.00 73 1017.4
20260507182755 15 0 0.0 4.8 0.00 0.00 0.00 73 1017.4
20260507182654 -17 173 20.9 0.0 0.00 0.00 0.00
20260507182555 15 180 0.0 4.8 0.00 0.00 0.00 73 1017.4
20260507182455 15 180 0.0 4.8 0.00 0.00 0.00 73 1017.3
20260507182355 15 90 0.0 4.8 0.00 0.00 0.00 73 1017.4
20260507182255 15 45 0.0 4.8 0.00 0.00 0.00 73 1017.3
20260507182155 15 180 0.0 4.8 0.00 0.00 0.00 73 1017.3
20260507182055 15 180 0.0 4.8 0.00 0.00 0.00 72 1017.3
20260507181955 16 0 0.0 4.8 0.00 0.00 0.00 72 1017.3
20260507181855 16 45 0.0 4.8 0.00 0.00 0.00 72 1017.3
20260507181755 16 45 0.0 4.8 0.00 0.00 0.00 72 1017.3
20260507181655 16 0 0.0 4.8 0.00 0.00 0.00 72 1017.3
20260507181555 16 180 0.0 4.8 0.00 0.00 0.00 72 1017.1
20260507181455 16 0 0.0 4.8 0.00 0.00 0.00 72 1017.1
20260507181355 16 180 1.6 4.8 0.00 0.00 0.00 72 1017.3
20260507181255 16 45 0.0 4.8 0.00 0.00 0.00 73 1017.3
20260507181155 16 45 0.0 3.2 0.00 0.00 0.00 72 1017.4
20260507181055 16 45 0.0 3.2 0.00 0.00 0.00 72 1017.3
20260507180955 16 225 0.0 3.2 0.00 0.00 0.00 72 1017.3
20260507180855 16 0 0.0 3.2 0.00 0.00 0.00 72 1017.4
20260507180755 16 0 0.0 3.2 0.00 0.00 0.00 72 1017.4
20260507180655 16 90 0.0 3.2 0.00 0.00 0.00 72 1017.3
20260507180555 16 180 0.0 3.2 0.00 0.00 0.00 72 1017.5
20260507180455 16 180 0.0 3.2 0.00 0.00 0.00 73 1017.4
20260507180355 16 45 0.0 3.2 0.00 0.00 0.00 72 1017.5
20260507180255 16 45 0.0 3.2 0.00 0.00 0.00 72 1017.4
20260507180155 16 180 0.0 3.2 0.00 0.00 0.00 72 1017.4
20260507180055 16 90 0.0 3.2 0.00 0.00 0.00 72 1017.5
20260507175955 16 45 0.0 3.2 0.00 0.00 0.00 72 1017.4
20260507175855 16 180 0.0 4.8 0.00 0.00 0.00 72 1017.4
20260507175755 16 45 0.0 4.8 0.00 0.00 0.00 72 1017.5
20260507175655 16 90 0.0 4.8 0.00 0.00 0.00 72 1017.5
20260507175555 16 45 0.0 4.8 0.00 0.00 0.00 72 1017.3
20260507175455 16 180 0.0 4.8 0.00 0.00 0.00 72 1017.5
20260507175354 -17 175 25.7 0.0 0.00 0.00 0.00
20260507175255 16 90 0.0 6.4 0.00 0.00 0.00 72 1017.3
20260507175155 16 180 0.0 8.0 0.00 0.00 0.00 72 1017.3
20260507175055 16 0 0.0 8.0 0.00 0.00 0.00 72 1017.4
20260507174955 16 180 0.0 8.0 0.00 0.00 0.00 72 1017.4
20260507174855 16 90 0.0 8.0 0.00 0.00 0.00 72 1017.3
20260507174755 16 180 0.0 8.0 0.00 0.00 0.00 72 1017.3
20260507174655 16 180 1.6 8.0 0.00 0.00 0.00 72 1017.4
20260507174555 16 45 1.6 8.0 0.00 0.00 0.00 72 1017.2
20260507174455 16 45 1.6 8.0 0.00 0.00 0.00 72 1017.1
20260507174354 -17 172 29.0 0.0 0.00 0.00 0.00
20260507174255 16 45 3.2 8.0 0.00 0.00 0.00 72 1017.2
20260507174155 16 0 1.6 9.7 0.00 0.00 0.00 72 1017.2
20260507174055 16 180 1.6 9.7 0.00 0.00 0.00 72 1017.2
20260507173955 16 0 0.0 9.7 0.00 0.00 0.00 72 1017.1
20260507173855 16 45 0.0 9.7 0.00 0.00 0.00 72 1017.1
20260507173755 16 0 0.0 9.7 0.00 0.00 0.00 72 1017.2
20260507173655 16 180 0.0 9.7 0.00 0.00 0.00 72 1017.2
20260507173555 16 45 3.2 9.7 0.00 0.00 0.00 72 1017.1
20260507173455 16 45 4.8 9.7 0.00 0.00 0.00 72 1017.4
20260507173355 16 90 4.8 9.7 0.00 0.00 0.00 73 1017.1
20260507173255 16 90 4.8 9.7 0.00 0.00 0.00 73 1017.2
20260507173155 16 45 3.2 9.7 0.00 0.00 0.00 73 1017.2
20260507173055 16 0 1.6 9.7 0.00 0.00 0.00 73 1017.1
20260507172955 16 45 0.0 9.7 0.00 0.00 0.00 73 1017.2
20260507172855 16 0 0.0 9.7 0.00 0.00 0.00 73 1017.1
20260507172755 16 90 0.0 9.7 0.00 0.00 0.00 73 1017.0
20260507172655 16 180 0.0 9.7 0.00 0.00 0.00 73 1017.1
20260507172555 16 0 1.6 9.7 0.00 0.00 0.00 73 1017.0
20260507172455 16 45 3.2 9.7 0.00 0.00 0.00 73 1016.9
20260507172355 16 90 3.2 9.7 0.00 0.00 0.00 73 1017.0
20260507172255 16 45 3.2 9.7 0.00 0.00 0.00 73 1016.9
20260507172155 16 0 1.6 6.4 0.00 0.00 0.00 73 1017.1
20260507172054 16 180 1.6 6.4 0.00 0.00 0.00 73 1017.0
20260507171955 16 90 0.0 6.4 0.00 0.00 0.00 73 1017.0
20260507171855 16 45 0.0 6.4 0.00 0.00 0.00 73 1017.0
20260507171755 16 90 0.0 6.4 0.00 0.00 0.00 73 1017.0
20260507171655 16 180 0.0 6.4 0.00 0.00 0.00 74 1016.8
20260507171555 16 90 1.6 6.4 0.00 0.00 0.00 74 1016.7
20260507171455 16 90 0.0 6.4 0.00 0.00 0.00 74 1016.9
20260507171354 -17 170 35.4 0.0 0.00 0.00 0.00
20260507171254 16 180 0.0 8.0 0.00 0.00 0.00 74 1016.8
20260507171154 16 90 3.2 8.0 0.00 0.00 0.00 74 1017.1
20260507171055 16 45 4.8 8.0 0.00 0.00 0.00 74 1016.9
20260507170955 16 0 4.8 8.0 0.00 0.00 0.00 75 1016.9
20260507170855 16 45 1.6 8.0 0.00 0.00 0.00 75 1017.0
20260507170755 16 315 1.6 8.0 0.00 0.00 0.00 75 1016.9
20260507170655 16 45 1.6 8.0 0.00 0.00 0.00 75 1016.9
20260507170554 -17 167 30.6 0.0 0.00 0.00 0.00
20260507170454 16 90 1.6 8.0 0.00 0.00 0.00 75 1016.9
20260507170354 16 45 0.0 8.0 0.00 0.00 0.00 75 1016.9
20260507170254 16 90 1.6 8.0 0.00 0.00 0.00 75 1017.1
20260507170155 16 0 1.6 8.0 0.00 0.00 0.00 75 1017.1
20260507170055 16 315 1.6 8.0 0.00 0.00 0.00 76 1016.9
20260507165955 16 45 1.6 8.0 0.00 0.00 0.00 76 1016.9
20260507165855 16 45 1.6 8.0 0.00 0.00 0.00 76 1016.8
20260507165754 16 45 1.6 8.0 0.00 0.00 0.00 76 1017.0
20260507165654 16 45 3.2 8.0 0.00 0.00 0.00 76 1016.9
20260507165554 16 45 3.2 8.0 0.00 0.00 0.00 77 1017.0
20260507165454 16 90 1.6 4.8 0.00 0.00 0.00 77 1016.9
20260507165355 16 45 0.0 8.0 0.00 0.00 0.00 77 1016.9
20260507165255 16 90 0.0 8.0 0.00 0.00 0.00 77 1016.9
20260507165155 16 90 0.0 8.0 0.00 0.00 0.00 77 1017.0
20260507165055 16 45 0.0 8.0 0.00 0.00 0.00 77 1016.8
20260507164954 16 0 0.0 9.7 0.00 0.00 0.00 77 1016.7
20260507164854 16 45 0.0 9.7 0.00 0.00 0.00 77 1016.8
20260507164754 16 0 0.0 9.7 0.00 0.00 0.00 77 1016.8
20260507164654 16 225 1.6 9.7 0.00 0.00 0.00 78 1016.9
20260507164555 16 45 3.2 9.7 0.00 0.00 0.00 78 1016.9
20260507164455 16 0 3.2 9.7 0.00 0.00 0.00 78 1016.8
20260507164355 16 45 1.6 9.7 0.00 0.00 0.00 78 1016.9
20260507164255 16 90 0.0 9.7 0.00 0.00 0.00 78 1016.8
20260507164154 16 0 1.6 9.7 0.00 0.00 0.00 79 1016.8
20260507164054 16 0 3.2 9.7 0.00 0.00 0.00 79 1016.8
20260507163954 16 45 3.2 8.0 0.00 0.00 0.00 79 1016.9
20260507163854 16 90 3.2 8.0 0.00 0.00 0.00 79 1016.9
20260507163754 16 45 0.0 8.0 0.00 0.00 0.00 79 1016.9
20260507163655 16 180 0.0 4.8 0.00 0.00 0.00 79 1016.9
20260507163555 16 90 0.0 6.4 0.00 0.00 0.00 79 1016.7
20260507163454 16 45 0.0 6.4 0.00 0.00 0.00 79 1016.8
20260507163354 16 90 1.6 6.4 0.00 0.00 0.00 79 1016.6
20260507163254 16 0 1.6 6.4 0.00 0.00 0.00 79 1016.8
20260507163154 16 90 0.0 6.4 0.00 0.00 0.00 79 1016.7
20260507163054 16 180 1.6 6.4 0.00 0.00 0.00 80 1016.9
20260507162954 16 45 1.6 6.4 0.00 0.00 0.00 80 1016.8
20260507162855 16 45 0.0 6.4 0.00 0.00 0.00 80 1016.7
20260507162755 16 180 1.6 6.4 0.00 0.00 0.00 80 1016.7
20260507162654 16 90 1.6 6.4 0.00 0.00 0.00 80 1016.7
20260507162554 16 45 0.0 4.8 0.00 0.00 0.00 80 1016.7
20260507162454 16 45 1.6 4.8 0.00 0.00 0.00 80 1016.8
20260507162354 16 0 1.6 4.8 0.00 0.00 0.00 80 1016.6
20260507162254 16 90 1.6 4.8 0.00 0.00 0.00 80 1016.8
20260507162154 16 0 0.0 4.8 0.00 0.00 0.00 80 1016.6
20260507162054 16 90 0.0 4.8 0.00 0.00 0.00 80 1016.7
20260507161955 16 180 1.6 4.8 0.00 0.00 0.00 80 1016.8
20260507161854 16 90 1.6 4.8 0.00 0.00 0.00 80 1016.8
20260507161754 16 0 0.0 6.4 0.00 0.00 0.00 81 1016.8
20260507161654 16 0 1.6 6.4 0.00 0.00 0.00 81 1016.7
20260507161554 16 90 1.6 6.4 0.00 0.00 0.00 81 1016.7
20260507161454 16 0 0.0 6.4 0.00 0.00 0.00 81 1016.8
20260507161354 16 45 0.0 6.4 0.00 0.00 0.00 81 1016.8
20260507161254 16 315 1.6 6.4 0.00 0.00 0.00 81 1016.7
20260507161154 16 90 1.6 6.4 0.00 0.00 0.00 81 1016.8
20260507161054 16 180 1.6 6.4 0.00 0.00 0.00 81 1016.8
20260507160954 16 0 3.2 6.4 0.00 0.00 0.00 81 1016.8
20260507160854 16 0 1.6 6.4 0.00 0.00 0.00 81 1016.8
20260507160754 16 90 0.0 4.8 0.00 0.00 0.00 81 1016.8
20260507160654 16 45 1.6 4.8 0.00 0.00 0.00 81 1016.8
20260507160554 16 0 1.6 4.8 0.00 0.00 0.00 81 1016.8
20260507160454 16 45 0.0 4.8 0.00 0.00 0.00 82 1016.8
20260507160354 16 180 0.0 4.8 0.00 0.00 0.00 82 1016.6
20260507160254 16 45 0.0 4.8 0.00 0.00 0.00 82 1016.8
20260507160154 16 0 0.0 4.8 0.00 0.00 0.00 82 1016.8
20260507160054 16 0 0.0 4.8 0.00 0.00 0.00 82 1016.7
20260507155954 16 45 0.0 4.8 0.00 0.00 0.00 82 1016.7
20260507155854 16 90 0.0 4.8 0.00 0.00 0.00 82 1016.7
20260507155754 16 90 1.6 4.8 0.00 0.00 0.00 82 1016.7
20260507155654 16 45 1.6 4.8 0.00 0.00 0.00 82 1016.7
20260507155554 16 90 1.6 8.0 0.00 0.00 0.00 82 1016.7
20260507155454 16 90 1.6 8.0 0.00 0.00 0.00 82 1016.7
20260507155354 16 0 1.6 8.0 0.00 0.00 0.00 82 1016.7
20260507155254 16 0 1.6 8.0 0.00 0.00 0.00 82 1016.7
20260507155154 16 45 1.6 8.0 0.00 0.00 0.00 82 1016.7
20260507155054 16 0 1.6 8.0 0.00 0.00 0.00 82 1016.8
20260507154954 16 45 0.0 8.0 0.00 0.00 0.00 82 1016.7
20260507154854 16 45 0.0 8.0 0.00 0.00 0.00 82 1016.7
20260507154754 16 180 1.6 8.0 0.00 0.00 0.00 82 1016.7
20260507154654 16 45 1.6 8.0 0.00 0.00 0.00 82 1016.8
20260507154554 16 45 1.6 4.8 0.00 0.00 0.00 82 1016.8
20260507154454 16 45 0.0 4.8 0.00 0.00 0.00 82 1016.9
20260507154354 16 90 0.0 4.8 0.00 0.00 0.00 82 1016.8
20260507154254 16 45 0.0 4.8 0.00 0.00 0.00 82 1017.0
20260507154154 16 315 1.6 6.4 0.00 0.00 0.00 82 1017.0
20260507154054 16 45 3.2 6.4 0.00 0.00 0.00 82 1016.9
20260507153954 16 90 1.6 6.4 0.00 0.00 0.00 82 1016.8
20260507153854 16 45 0.0 6.4 0.00 0.00 0.00 82 1016.9
20260507153754 16 90 0.0 6.4 0.00 0.00 0.00 82 1017.0
20260507153654 16 0 0.0 6.4 0.00 0.00 0.00 82 1017.0
20260507153554 16 45 0.0 6.4 0.00 0.00 0.00 82 1017.0
20260507153454 16 90 0.0 6.4 0.00 0.00 0.00 82 1017.0
20260507153354 16 0 0.0 6.4 0.00 0.00 0.00 82 1017.0
20260507153254 16 0 1.6 6.4 0.00 0.00 0.00 82 1017.1
20260507153154 16 45 1.6 4.8 0.00 0.00 0.00 82 1017.0
20260507153054 16 0 0.0 4.8 0.00 0.00 0.00 82 1016.9
20260507152954 16 90 1.6 4.8 0.00 0.00 0.00 82 1016.9
20260507152854 16 0 0.0 4.8 0.00 0.00 0.00 82 1016.8
20260507152754 16 180 0.0 4.8 0.00 0.00 0.00 82 1016.8
20260507152654 16 180 0.0 4.8 0.00 0.00 0.00 82 1016.9
20260507152554 16 0 0.0 4.8 0.00 0.00 0.00 82 1016.9
20260507152454 16 0 0.0 4.8 0.00 0.00 0.00 82 1016.8
20260507152354 16 0 0.0 4.8 0.00 0.00 0.00 82 1016.9
20260507152254 16 90 0.0 4.8 0.00 0.00 0.00 82 1016.8
20260507152154 16 90 0.0 4.8 0.00 0.00 0.00 82 1016.9
20260507152055 16 90 0.0 4.8 0.00 0.00 0.00 82 1016.8
20260507151954 16 90 1.6 4.8 0.00 0.00 0.00 82 1016.8
20260507151854 16 45 1.6 4.8 0.00 0.00 0.00 82 1016.9
20260507151754 16 90 1.6 4.8 0.00 0.00 0.00 82 1016.8
20260507151654 16 45 1.6 4.8 0.00 0.00 0.00 82 1016.8
20260507151554 16 0 1.6 4.8 0.00 0.00 0.00 82 1016.8
20260507151454 16 45 1.6 4.8 0.00 0.00 0.00 82 1016.9
20260507151354 16 0 1.6 4.8 0.00 0.00 0.00 82 1016.9
20260507151254 16 315 0.0 3.2 0.00 0.00 0.00 82 1017.0
20260507151154 16 315 0.0 3.2 0.00 0.00 0.00 82 1017.0
20260507151054 16 45 0.0 4.8 0.00 0.00 0.00 81 1017.0
20260507150954 16 0 0.0 4.8 0.00 0.00 0.00 81 1017.1
20260507150854 16 45 0.0 4.8 0.00 0.00 0.00 81 1016.9
20260507150754 16 180 0.0 4.8 0.00 0.00 0.00 81 1016.9
20260507150654 16 0 0.0 4.8 0.00 0.00 0.00 81 1016.8
20260507150554 16 180 0.0 4.8 0.00 0.00 0.00 81 1016.8
20260507150454 16 90 0.0 4.8 0.00 0.00 0.00 81 1016.8
20260507150354 16 90 0.0 4.8 0.00 0.00 0.00 81 1016.8
20260507150254 16 0 0.0 4.8 0.00 0.00 0.00 81 1016.8
20260507150054 16 90 1.6 4.8 0.00 0.00 0.00 82 1016.7
20260507145954 16 0 1.6 4.8 0.00 0.00 0.00 81 1016.6
20260507145854 16 0 0.0 4.8 0.00 0.00 0.00 81 1016.5
20260507145754 16 90 0.0 3.2 0.00 0.00 0.00 81 1016.6
20260507145654 16 0 0.0 3.2 0.00 0.00 0.00 81 1016.6
20260507145554 16 180 0.0 3.2 0.00 0.00 0.00 81 1016.6
20260507145454 16 90 0.0 3.2 0.00 0.00 0.00 81 1016.6
20260507145354 16 90 0.0 4.8 0.00 0.00 0.00 81 1016.7
20260507145254 16 225 0.0 4.8 0.00 0.00 0.00 81 1016.7
20260507145154 16 180 0.0 4.8 0.00 0.00 0.00 81 1016.7
20260507145054 16 45 0.0 4.8 0.00 0.00 0.00 81 1016.8
20260507144954 16 90 0.0 4.8 0.00 0.00 0.00 81 1016.7
20260507144854 16 180 0.0 4.8 0.00 0.00 0.00 81 1016.8
20260507144754 16 315 0.0 4.8 0.00 0.00 0.00 81 1016.8
20260507144654 16 180 0.0 4.8 0.00 0.00 0.00 81 1016.7
20260507144554 16 45 0.0 4.8 0.00 0.00 0.00 81 1016.5
20260507144454 16 180 0.0 4.8 0.00 0.00 0.00 81 1016.5
20260507144354 16 180 0.0 4.8 0.00 0.00 0.00 81 1016.6
20260507144254 16 180 0.0 4.8 0.00 0.00 0.00 81 1016.7
20260507144154 16 90 0.0 4.8 0.00 0.00 0.00 81 1016.6
20260507144054 16 90 0.0 4.8 0.00 0.00 0.00 81 1016.6
20260507143954 16 0 0.0 4.8 0.00 0.00 0.00 81 1016.6
20260507143854 16 90 1.6 4.8 0.00 0.00 0.00 81 1016.6
20260507143754 16 45 0.0 4.8 0.00 0.00 0.00 81 1016.7
20260507143654 16 45 0.0 4.8 0.00 0.00 0.00 81 1016.7
20260507143554 16 45 0.0 4.8 0.00 0.00 0.00 81 1016.7
20260507143454 16 0 0.0 4.8 0.00 0.00 0.00 81 1016.7
20260507143354 16 45 1.6 4.8 0.00 0.00 0.00 81 1016.8
20260507143254 16 315 1.6 4.8 0.00 0.00 0.00 81 1016.8
20260507143154 16 45 1.6 4.8 0.00 0.00 0.00 81 1016.9
20260507143054 16 90 1.6 4.8 0.00 0.00 0.00 81 1017.0
20260507142954 16 45 1.6 6.4 0.00 0.00 0.00 81 1016.9
20260507142854 16 45 0.0 6.4 0.00 0.00 0.00 81 1016.9
20260507142754 16 0 0.0 6.4 0.00 0.00 0.00 81 1016.9
20260507142654 16 90 0.0 6.4 0.00 0.00 0.00 81 1016.9
20260507142553 16 1 6.4 0.0 0.00 0.00 0.00 81 1016.9
20260507142454 16 0 1.6 6.4 0.00 0.00 0.00 81 1016.8
20260507142354 16 90 0.0 6.4 0.00 0.00 0.00 81 1016.7
20260507142254 16 45 1.6 6.4 0.00 0.00 0.00 81 1016.8
20260507142154 16 45 1.6 6.4 0.00 0.00 0.00 81 1016.8
20260507142054 16 45 1.6 6.4 0.00 0.00 0.00 81 1016.6
20260507141954 16 45 0.0 6.4 0.00 0.00 0.00 81 1016.7
20260507141854 16 45 0.0 6.4 0.00 0.00 0.00 81 1016.7
20260507141754 16 45 1.6 6.4 0.00 0.00 0.00 81 1016.7
20260507141654 16 0 1.6 6.4 0.00 0.00 0.00 81 1016.8
20260507141554 16 45 1.6 4.8 0.00 0.00 0.00 81 1016.8
20260507141454 16 45 1.6 4.8 0.00 0.00 0.00 81 1016.9
20260507141354 16 0 1.6 4.8 0.00 0.00 0.00 81 1016.8
20260507141254 16 90 0.0 4.8 0.00 0.00 0.00 81 1016.8
20260507141154 16 90 0.0 4.8 0.00 0.00 0.00 81 1017.0
20260507141054 16 45 0.0 4.8 0.00 0.00 0.00 81 1016.8
20260507140954 16 90 0.0 4.8 0.00 0.00 0.00 81 1016.7
20260507140854 16 45 0.0 4.8 0.00 0.00 0.00 81 1016.7
20260507140754 16 90 0.0 4.8 0.00 0.00 0.00 81 1016.8
20260507140654 16 90 0.0 4.8 0.00 0.00 0.00 81 1016.7
20260507140554 16 0 0.0 4.8 0.00 0.00 0.00 81 1016.6
20260507140454 16 45 0.0 4.8 0.00 0.00 0.00 81 1016.7
20260507140354 16 90 0.0 4.8 0.00 0.00 0.00 81 1016.7
20260507140254 16 90 0.0 4.8 0.00 0.00 0.00 81 1016.6
20260507140154 16 45 0.0 4.8 0.00 0.00 0.00 81 1016.6
20260507140054 16 0 0.0 4.8 0.00 0.00 0.00 80 1016.6
20260507135954 16 0 0.0 4.8 0.00 0.00 0.00 80 1016.6
20260507135854 16 90 1.6 4.8 0.00 0.00 0.00 80 1016.5
20260507135754 16 45 0.0 4.8 0.00 0.00 0.00 80 1016.5
20260507135654 16 90 0.0 4.8 0.00 0.00 0.00 80 1016.7
20260507135554 16 90 0.0 4.8 0.00 0.00 0.00 80 1016.4
20260507135454 16 0 0.0 4.8 0.00 0.00 0.00 80 1016.3
20260507135354 16 45 1.6 4.8 0.00 0.00 0.00 80 1016.3
20260507135254 16 180 0.0 4.8 0.00 0.00 0.00 80 1016.3
20260507135154 16 180 0.0 3.2 0.00 0.00 0.00 80 1016.2
20260507135054 16 180 0.0 3.2 0.00 0.00 0.00 80 1016.1
20260507134954 16 180 0.0 4.8 0.00 0.00 0.00 80 1016.3
20260507134854 16 90 0.0 4.8 0.00 0.00 0.00 80 1016.1
20260507134754 16 45 0.0 4.8 0.00 0.00 0.00 80 1016.2
20260507134654 16 90 0.0 4.8 0.00 0.00 0.00 80 1016.1
20260507134553 16 45 0.0 4.8 0.00 0.00 0.00 80 1016.0
20260507134454 16 45 0.0 4.8 0.00 0.00 0.00 80 1016.2
20260507134354 16 45 0.0 4.8 0.00 0.00 0.00 80 1016.2
20260507134254 16 90 0.0 4.8 0.00 0.00 0.00 80 1016.3
20260507134154 16 90 1.6 4.8 0.00 0.00 0.00 80 1016.1
20260507134053 16 1 4.8 0.0 0.00 0.00 0.00 80 1016.2
20260507133954 16 180 1.6 4.8 0.00 0.00 0.00 80 1016.0
20260507133853 16 90 0.0 4.8 0.00 0.00 0.00 80 1016.0
20260507133753 16 90 1.6 4.8 0.00 0.00 0.00 80 1015.9
20260507133653 16 45 1.6 4.8 0.00 0.00 0.00 80 1015.9
20260507133553 16 45 1.6 4.8 0.00 0.00 0.00 80 1016.0
20260507133454 16 90 1.6 4.8 0.00 0.00 0.00 80 1015.9
20260507133354 16 45 0.0 4.8 0.00 0.00 0.00 80 1015.9
20260507133254 16 0 0.0 4.8 0.00 0.00 0.00 80 1015.9
20260507133154 16 45 0.0 4.8 0.00 0.00 0.00 80 1016.0
20260507133054 16 90 1.6 4.8 0.00 0.00 0.00 80 1016.2
20260507132954 16 90 1.6 4.8 0.00 0.00 0.00 80 1016.0
20260507132853 16 45 0.0 4.8 0.00 0.00 0.00 80 1015.9
20260507132753 16 90 0.0 4.8 0.00 0.00 0.00 80 1015.9
20260507132653 16 45 0.0 4.8 0.00 0.00 0.00 80 1015.9
20260507132554 16 45 1.6 4.8 0.00 0.00 0.00 80 1015.9
20260507132454 16 45 1.6 4.8 0.00 0.00 0.00 80 1015.8
20260507132354 16 90 1.6 4.8 0.00 0.00 0.00 80 1015.7
20260507132254 16 180 1.6 4.8 0.00 0.00 0.00 80 1015.6
20260507132153 16 180 1.6 4.8 0.00 0.00 0.00 80 1015.7
20260507132053 16 90 1.6 4.8 0.00 0.00 0.00 80 1015.7
20260507131953 16 45 1.6 4.8 0.00 0.00 0.00 80 1015.5
20260507131853 16 45 3.2 4.8 0.00 0.00 0.00 80 1015.9
20260507131753 16 45 1.6 4.8 0.00 0.00 0.00 80 1016.0
20260507131653 16 45 0.0 4.8 0.00 0.00 0.00 79 1016.0
20260507131554 16 45 0.0 4.8 0.00 0.00 0.00 79 1016.0
20260507131454 16 45 0.0 4.8 0.00 0.00 0.00 79 1016.1
20260507131354 16 180 0.0 4.8 0.00 0.00 0.00 79 1016.2
20260507131254 16 180 0.0 4.8 0.00 0.00 0.00 79 1016.0
20260507131153 16 180 0.0 4.8 0.00 0.00 0.00 79 1016.0
20260507131053 16 0 0.0 4.8 0.00 0.00 0.00 79 1016.1
20260507130953 16 180 0.0 4.8 0.00 0.00 0.00 79 1016.0
20260507130853 16 90 1.6 4.8 0.00 0.00 0.00 79 1016.1
20260507130753 16 90 1.6 4.8 0.00 0.00 0.00 79 1016.0
20260507130653 16 90 0.0 4.8 0.00 0.00 0.00 79 1016.0
20260507130553 16 0 0.0 4.8 0.00 0.00 0.00 79 1016.0
20260507130454 16 90 0.0 4.8 0.00 0.00 0.00 79 1016.0
20260507130353 17 180 1.6 4.8 0.00 0.00 0.00 79 1016.0
20260507130253 16 180 1.6 4.8 0.00 0.00 0.00 79 1015.9
20260507130153 17 180 1.6 4.8 0.00 0.00 0.00 79 1015.9
20260507130053 17 90 1.6 4.8 0.00 0.00 0.00 79 1015.9
20260507125953 17 180 1.6 4.8 0.00 0.00 0.00 79 1015.8
20260507125853 17 90 3.2 4.8 0.00 0.00 0.00 79 1015.9
20260507125753 17 90 3.2 4.8 0.00 0.00 0.00 79 1015.8
20260507125653 17 180 1.6 4.8 0.00 0.00 0.00 79 1015.8
20260507125553 17 90 0.0 4.8 0.00 0.00 0.00 79 1015.9
20260507125454 17 180 0.0 4.8 0.00 0.00 0.00 79 1015.9
20260507125353 17 180 0.0 4.8 0.00 0.00 0.00 79 1016.0
20260507125253 17 180 0.0 4.8 0.00 0.00 0.00 79 1015.8
20260507125153 17 180 0.0 4.8 0.00 0.00 0.00 79 1015.8
20260507125053 17 180 0.0 4.8 0.00 0.00 0.00 79 1015.9
20260507124953 17 90 1.6 4.8 0.00 0.00 0.00 79 1016.0
20260507124853 17 90 0.0 4.8 0.00 0.00 0.00 79 1015.9
20260507124753 17 180 0.0 4.8 0.00 0.00 0.00 79 1015.9
20260507124653 17 180 0.0 4.8 0.00 0.00 0.00 79 1015.9
20260507124554 17 0 0.0 4.8 0.00 0.00 0.00 79 1015.8
20260507124453 17 90 1.6 4.8 0.00 0.00 0.00 79 1015.8
20260507124353 17 180 1.6 4.8 0.00 0.00 0.00 79 1015.7
20260507124253 17 180 0.0 4.8 0.00 0.00 0.00 79 1015.8
20260507124153 17 180 0.0 4.8 0.00 0.00 0.00 79 1015.7
20260507124053 17 90 1.6 4.8 0.00 0.00 0.00 79 1015.8
20260507123953 17 180 1.6 4.8 0.00 0.00 0.00 79 1015.6
20260507123853 17 180 1.6 6.4 0.00 0.00 0.00 79 1015.6
20260507123753 17 180 1.6 6.4 0.00 0.00 0.00 79 1015.7
20260507123653 17 90 1.6 6.4 0.00 0.00 0.00 79 1015.6
20260507123553 17 180 0.0 6.4 0.00 0.00 0.00 79 1015.8
20260507123453 17 180 0.0 6.4 0.00 0.00 0.00 79 1015.6
20260507123353 17 90 1.6 6.4 0.00 0.00 0.00 79 1015.6
20260507123253 17 180 1.6 6.4 0.00 0.00 0.00 79 1015.7
20260507123153 17 180 1.6 6.4 0.00 0.00 0.00 79 1015.6
20260507123053 17 0 3.2 6.4 0.00 0.00 0.00 79 1015.5
20260507122953 17 180 3.2 6.4 0.00 0.00 0.00 79 1015.5
20260507122853 17 180 1.6 6.4 0.00 0.00 0.00 79 1015.5
20260507122753 17 180 0.0 6.4 0.00 0.00 0.00 79 1015.5
20260507122653 17 45 1.6 6.4 0.00 0.00 0.00 79 1015.5
20260507122553 17 90 1.6 6.4 0.00 0.00 0.00 79 1015.4
20260507122453 17 90 1.6 6.4 0.00 0.00 0.00 79 1015.4
20260507122353 17 90 1.6 6.4 0.00 0.00 0.00 79 1015.4
20260507122253 17 90 3.2 6.4 0.00 0.00 0.00 79 1015.3
20260507122153 17 180 1.6 6.4 0.00 0.00 0.00 79 1015.4
20260507122053 17 0 1.6 6.4 0.00 0.00 0.00 79 1015.4
20260507121953 17 90 1.6 6.4 0.00 0.00 0.00 79 1015.4
20260507121853 17 180 1.6 6.4 0.00 0.00 0.00 79 1015.2
20260507121753 17 90 3.2 6.4 0.00 0.00 0.00 79 1015.3
20260507121653 17 180 3.2 6.4 0.00 0.00 0.00 79 1015.2
20260507121553 17 180 3.2 6.4 0.00 0.00 0.00 79 1015.2
20260507121453 17 180 1.6 4.8 0.00 0.00 0.00 78 1015.2
20260507121353 17 180 1.6 4.8 0.00 0.00 0.00 78 1015.1
20260507121253 17 180 1.6 4.8 0.00 0.00 0.00 78 1015.2
20260507121153 17 180 3.2 4.8 0.00 0.00 0.00 78 1015.2
20260507121053 17 180 3.2 4.8 0.00 0.00 0.00 78 1015.2
20260507120953 17 180 3.2 4.8 0.00 0.00 0.00 78 1015.0
20260507120853 17 180 1.6 4.8 0.00 0.00 0.00 78 1014.9
20260507120753 17 180 1.6 4.8 0.00 0.00 0.00 78 1015.0
20260507120653 17 180 3.2 4.8 0.00 0.00 0.00 78 1015.0
20260507120553 17 90 3.2 4.8 0.00 0.00 0.00 78 1015.1
20260507120453 17 180 1.6 4.8 0.00 0.00 0.00 78 1014.8
20260507120354 17 90 1.6 4.8 0.00 0.00 0.00 78 1015.0
20260507120253 17 180 0.0 4.8 0.00 0.00 0.00 78 1014.9
20260507120153 17 180 0.0 3.2 0.00 0.00 0.00 79 1014.9
20260507120053 17 45 0.0 3.2 0.00 0.00 0.00 79 1014.9
20260507115953 17 180 0.0 3.2 0.00 0.00 0.00 79 1014.9
20260507115853 17 180 0.0 3.2 0.00 0.00 0.00 79 1014.8
20260507115753 17 180 0.0 3.2 0.00 0.00 0.00 79 1014.7
20260507115653 17 180 0.0 3.2 0.00 0.00 0.00 79 1014.7
20260507115553 17 90 0.0 3.2 0.00 0.00 0.00 79 1014.6
20260507115453 17 45 0.0 3.2 0.00 0.00 0.00 79 1014.7
20260507115353 17 90 0.0 3.2 0.00 0.00 0.00 78 1014.8
20260507115253 17 90 0.0 3.2 0.00 0.00 0.00 78 1014.7
20260507115153 17 90 0.0 3.2 0.00 0.00 0.00 78 1014.7
20260507115053 17 180 0.0 3.2 0.00 0.00 0.00 78 1014.7
20260507114953 17 180 0.0 3.2 0.00 0.00 0.00 78 1014.6
20260507114853 17 180 0.0 3.2 0.00 0.00 0.00 78 1014.6
20260507114753 17 90 0.0 3.2 0.00 0.00 0.00 78 1014.6
20260507114653 17 180 0.0 3.2 0.00 0.00 0.00 78 1014.7
20260507114553 17 90 0.0 3.2 0.00 0.00 0.00 78 1014.6
20260507114453 17 45 0.0 3.2 0.00 0.00 0.00 78 1014.5
20260507114353 17 90 0.0 4.8 0.00 0.00 0.00 78 1014.5
20260507114253 17 180 0.0 4.8 0.00 0.00 0.00 78 1014.6
20260507114153 17 180 0.0 4.8 0.00 0.00 0.00 78 1014.5
20260507114053 17 180 0.0 4.8 0.00 0.00 0.00 78 1014.4
20260507113953 17 45 0.0 4.8 0.00 0.00 0.00 78 1014.4
20260507113853 17 0 0.0 4.8 0.00 0.00 0.00 78 1014.4
20260507113753 17 0 0.0 4.8 0.00 0.00 0.00 78 1014.3
20260507113653 17 45 0.0 4.8 0.00 0.00 0.00 78 1014.4
20260507113553 17 45 1.6 4.8 0.00 0.00 0.00 78 1014.4
20260507113453 17 0 0.0 4.8 0.00 0.00 0.00 78 1014.3
20260507113353 17 0 0.0 4.8 0.00 0.00 0.00 78 1014.3
20260507113253 17 90 0.0 4.8 0.00 0.00 0.00 78 1014.2
20260507113153 17 180 0.0 4.8 0.00 0.00 0.00 78 1014.4
20260507113053 17 180 0.0 4.8 0.00 0.00 0.00 78 1014.3
20260507112953 17 90 0.0 4.8 0.00 0.00 0.00 78 1014.2
20260507112853 17 90 1.6 4.8 0.00 0.00 0.00 78 1014.3
20260507112753 17 90 1.6 4.8 0.00 0.00 0.00 78 1014.3
20260507112653 17 315 1.6 8.0 0.00 0.00 0.00 78 1014.2
20260507112553 17 45 0.0 8.0 0.00 0.00 0.00 78 1014.2
20260507112453 17 0 0.0 8.0 0.00 0.00 0.00 78 1014.3
20260507112352 -17 143 16.1 0.0 0.00 0.00 0.00
20260507112253 17 0 0.0 8.0 0.00 0.00 0.00 78 1014.1
20260507112153 17 90 0.0 8.0 0.00 0.00 0.00 78 1014.2
20260507112053 17 180 0.0 8.0 0.00 0.00 0.00 78 1014.2
20260507111953 17 45 1.6 8.0 0.00 0.00 0.00 78 1014.3
20260507111853 17 45 1.6 8.0 0.00 0.00 0.00 78 1014.2
20260507111753 17 45 0.0 8.0 0.00 0.00 0.00 78 1014.2
20260507111653 17 0 0.0 8.0 0.00 0.00 0.00 78 1014.1
20260507111552 -17 140 16.1 0.0 0.00 0.00 0.00
20260507111453 17 225 0.0 8.0 0.00 0.00 0.00 78 1014.1
20260507111353 17 90 0.0 8.0 0.00 0.00 0.00 78 1013.9
20260507111253 17 180 0.0 8.0 0.00 0.00 0.00 78 1013.9
20260507111153 17 45 0.0 8.0 0.00 0.00 0.00 78 1013.9
20260507111053 17 90 1.6 8.0 0.00 0.00 0.00 78 1013.9
20260507110953 17 45 3.2 11.3 0.00 0.00 0.00 78 1013.9
20260507110853 17 0 1.6 11.3 0.00 0.00 0.00 78 1013.9
20260507110753 17 315 1.6 11.3 0.00 0.00 0.00 78 1013.9
20260507110653 17 90 3.2 11.3 0.00 0.00 0.00 78 1013.8
20260507110553 17 90 3.2 11.3 0.00 0.00 0.00 78 1013.8
20260507110453 17 45 1.6 11.3 0.00 0.00 0.00 78 1013.9
20260507110353 17 45 0.0 11.3 0.00 0.00 0.00 79 1013.8
20260507110253 17 45 3.2 11.3 0.00 0.00 0.00 78 1013.8
20260507110153 17 45 4.8 11.3 0.00 0.00 0.00 78 1013.9
20260507110053 17 90 4.8 11.3 0.00 0.00 0.00 79 1013.7
20260507105953 17 0 3.2 9.7 0.00 0.00 0.00 79 1013.7
20260507105853 17 0 3.2 9.7 0.00 0.00 0.00 79 1013.8
20260507105753 17 180 3.2 11.3 0.00 0.00 0.00 78 1013.8
20260507105653 17 90 3.2 11.3 0.00 0.00 0.00 78 1013.7
20260507105553 17 90 3.2 11.3 0.00 0.00 0.00 78 1013.7
20260507105453 17 90 3.2 11.3 0.00 0.00 0.00 78 1013.8
20260507105353 17 0 3.2 11.3 0.00 0.00 0.00 78 1013.7
20260507105253 17 45 3.2 11.3 0.00 0.00 0.00 78 1013.6
20260507105153 17 180 3.2 11.3 0.00 0.00 0.00 78 1013.7
20260507105053 17 90 4.8 11.3 0.00 0.00 0.00 78 1013.6
20260507104953 17 45 4.8 11.3 0.00 0.00 0.00 78 1013.5
20260507104853 17 45 3.2 11.3 0.00 0.00 0.00 78 1013.4
20260507104753 17 180 3.2 9.7 0.00 0.00 0.00 78 1013.4
20260507104653 17 0 1.6 9.7 0.00 0.00 0.00 78 1013.5
20260507104552 17 1 9.7 0.0 0.00 0.00 0.00 78 1013.5
20260507104453 17 90 1.6 9.7 0.00 0.00 0.00 78 1013.4
20260507104353 17 90 1.6 12.9 0.00 0.00 0.00 78 1013.4
20260507104253 17 0 1.6 12.9 0.00 0.00 0.00 78 1013.6
20260507104153 17 45 3.2 12.9 0.00 0.00 0.00 78 1013.4
20260507104052 17 45 3.2 12.9 0.00 0.00 0.00 78 1013.5
20260507103953 17 90 3.2 12.9 0.00 0.00 0.00 78 1013.4
20260507103853 17 45 3.2 12.9 0.00 0.00 0.00 78 1013.3
20260507103753 17 45 3.2 12.9 0.00 0.00 0.00 78 1013.2
20260507103653 17 90 3.2 12.9 0.00 0.00 0.00 78 1013.1
20260507103553 17 0 4.8 12.9 0.00 0.00 0.00 78 1013.1
20260507103353 17 0 4.8 9.7 0.00 0.00 0.00 78 1013.1
20260507103252 17 90 4.8 9.7 0.00 0.00 0.00 78 1013.3
20260507103153 18 90 4.8 9.7 0.00 0.00 0.00 79 1013.1
20260507103053 18 0 4.8 9.7 0.00 0.00 0.00 79 1013.1
20260507102953 17 90 4.8 9.7 0.00 0.00 0.00 79 1013.1
20260507102853 18 45 3.2 9.7 0.00 0.00 0.00 79 1013.1
20260507102753 18 90 1.6 9.7 0.00 0.00 0.00 79 1013.1
20260507102552 18 45 1.6 9.7 0.00 0.00 0.00 79 1013.0
20260507102452 18 0 3.2 9.7 0.00 0.00 0.00 78 1013.1
20260507102353 18 90 1.6 9.7 0.00 0.00 0.00 78 1013.1
20260507102253 18 90 3.2 9.7 0.00 0.00 0.00 78 1013.0
20260507102153 18 0 4.8 9.7 0.00 0.00 0.00 78 1012.9
20260507102053 18 45 1.6 9.7 0.00 0.00 0.00 78 1012.9
20260507101953 18 45 1.6 8.0 0.00 0.00 0.00 78 1013.0
20260507101852 18 45 0.0 8.0 0.00 0.00 0.00 78 1013.0
20260507101752 18 45 0.0 8.0 0.00 0.00 0.00 78 1013.0
20260507101652 18 180 1.6 8.0 0.00 0.00 0.00 78 1013.0
20260507101553 18 180 1.6 8.0 0.00 0.00 0.00 78 1013.0
20260507101453 18 45 3.2 8.0 0.00 0.00 0.00 77 1013.0
20260507101353 18 0 1.6 12.9 0.00 0.00 0.00 77 1013.0
20260507101253 18 0 0.0 12.9 0.00 0.00 0.00 77 1012.9
20260507101153 18 45 0.0 12.9 0.00 0.00 0.00 77 1013.1
20260507101052 18 315 1.6 12.9 0.00 0.00 0.00 77 1013.0
20260507100952 18 45 1.6 12.9 0.00 0.00 0.00 76 1013.0
20260507100852 18 90 1.6 12.9 0.00 0.00 0.00 76 1012.9
20260507100753 18 0 1.6 12.9 0.00 0.00 0.00 76 1013.0
20260507100653 18 45 3.2 12.9 0.00 0.00 0.00 76 1012.9
20260507100553 18 0 4.8 12.9 0.00 0.00 0.00 75 1012.8
20260507100453 18 90 4.8 12.9 0.00 0.00 0.00 75 1012.7
20260507100353 18 90 4.8 11.3 0.00 0.00 0.00 74 1012.7
20260507100252 18 45 3.2 9.7 0.00 0.00 0.00 74 1012.8
20260507100152 18 45 1.6 9.7 0.00 0.00 0.00 74 1012.7
20260507100053 19 0 3.2 9.7 0.00 0.00 0.00 73 1012.8
20260507095953 19 0 4.8 9.7 0.00 0.00 0.00 73 1012.7
20260507095853 19 0 4.8 9.7 0.00 0.00 0.00 72 1012.6
20260507095753 19 90 3.2 8.0 0.00 0.00 0.00 71 1012.6
20260507095653 18 90 0.0 6.4 0.00 0.00 0.00 71 1012.6
20260507095553 18 0 0.0 6.4 0.00 0.00 0.00 71 1012.6
20260507095452 18 180 0.0 6.4 0.00 0.00 0.00 71 1012.6
20260507095352 18 45 0.0 6.4 0.00 0.00 0.00 72 1012.5
20260507095252 18 180 0.0 6.4 0.00 0.00 0.00 72 1012.6
20260507095152 18 90 1.6 6.4 0.00 0.00 0.00 72 1012.5
20260507095053 18 180 1.6 6.4 0.00 0.00 0.00 72 1012.6
20260507094953 18 45 3.2 6.4 0.00 0.00 0.00 73 1012.6
20260507094853 18 45 1.6 6.4 0.00 0.00 0.00 73 1012.5
20260507094753 18 90 0.0 4.8 0.00 0.00 0.00 74 1012.6
20260507094652 18 0 0.0 4.8 0.00 0.00 0.00 74 1012.4
20260507094552 18 180 0.0 6.4 0.00 0.00 0.00 74 1012.5
20260507094452 18 90 0.0 6.4 0.00 0.00 0.00 75 1012.4
20260507094352 18 90 0.0 6.4 0.00 0.00 0.00 75 1012.4
20260507094253 18 90 1.6 6.4 0.00 0.00 0.00 76 1012.5
20260507094153 18 180 1.6 6.4 0.00 0.00 0.00 76 1012.4
20260507094052 18 90 1.6 6.4 0.00 0.00 0.00 76 1012.4
20260507093952 18 180 0.0 8.0 0.00 0.00 0.00 77 1012.3
20260507093852 18 180 0.0 8.0 0.00 0.00 0.00 77 1012.4
20260507093752 18 45 0.0 8.0 0.00 0.00 0.00 77 1012.5
20260507093652 18 90 1.6 8.0 0.00 0.00 0.00 78 1012.3
20260507093552 18 45 0.0 8.0 0.00 0.00 0.00 78 1012.3
20260507093453 18 0 0.0 9.7 0.00 0.00 0.00 78 1012.3
20260507093353 18 90 0.0 9.7 0.00 0.00 0.00 78 1012.2
20260507093252 18 180 0.0 9.7 0.00 0.00 0.00 78 1012.3
20260507093152 18 1 9.7 0.0 0.00 0.00 0.00 78 1012.3
20260507093052 18 0 3.2 9.7 0.00 0.00 0.00 78 1012.4
20260507092952 18 45 1.6 9.7 0.00 0.00 0.00 78 1012.1
20260507092852 18 180 3.2 9.7 0.00 0.00 0.00 78 1012.1
20260507092752 18 90 1.6 9.7 0.00 0.00 0.00 78 1012.4
20260507092653 18 0 1.6 9.7 0.00 0.00 0.00 78 1012.2
20260507092552 18 45 3.2 9.7 0.00 0.00 0.00 78 1012.1
20260507092452 18 45 0.0 11.3 0.00 0.00 0.00 78 1012.3
20260507092352 18 180 0.0 11.3 0.00 0.00 0.00 78 1012.1
20260507092252 18 180 1.6 11.3 0.00 0.00 0.00 78 1012.1
20260507092152 18 0 1.6 11.3 0.00 0.00 0.00 78 1012.1
20260507092052 18 315 3.2 11.3 0.00 0.00 0.00 78 1012.2
20260507091952 18 45 3.2 11.3 0.00 0.00 0.00 78 1012.2
20260507091852 18 0 1.6 11.3 0.00 0.00 0.00 78 1012.0
20260507091753 18 90 1.6 11.3 0.00 0.00 0.00 78 1011.9
20260507091652 18 315 4.8 11.3 0.00 0.00 0.00 78 1012.0
20260507091552 18 45 3.2 11.3 0.00 0.00 0.00 78 1012.0
20260507091452 18 45 1.6 9.7 0.00 0.00 0.00 77 1012.1
20260507091252 18 0 3.2 11.3 0.00 0.00 0.00 77 1012.0
20260507091152 19 90 4.8 12.9 0.00 0.00 0.00 77 1012.0
20260507091052 19 45 4.8 12.9 0.00 0.00 0.00 76 1012.1
20260507090952 19 45 4.8 12.9 0.00 0.00 0.00 76 1012.0
20260507090852 19 45 3.2 12.9 0.00 0.00 0.00 76 1011.8
20260507090752 19 0 4.8 12.9 0.00 0.00 0.00 76 1012.0
20260507090652 19 45 4.8 12.9 0.00 0.00 0.00 76 1011.8
20260507090552 19 45 4.8 14.5 0.00 0.00 0.00 76 1011.9
20260507090452 20 45 3.2 14.5 0.00 0.00 0.00 76 1011.9
20260507090352 20 225 4.8 14.5 0.00 0.00 0.00 76 1011.7
20260507090252 20 45 4.8 14.5 0.00 0.00 0.00 75 1011.9
20260507090152 20 45 3.2 14.5 0.00 0.00 0.00 75 1011.7
20260507090052 20 45 4.8 14.5 0.00 0.00 0.00 75 1011.7
20260507085952 20 45 3.2 14.5 0.00 0.00 0.00 75 1011.8
20260507085852 20 45 1.6 14.5 0.00 0.00 0.00 75 1011.8
20260507085752 20 315 4.8 14.5 0.00 0.00 0.00 74 1011.7
20260507085652 20 0 4.8 14.5 0.00 0.00 0.00 74 1011.7
20260507085552 20 180 3.2 9.7 0.00 0.00 0.00 75 1011.7
20260507085452 20 90 1.6 4.8 0.00 0.00 0.00 75 1011.5
20260507085352 20 45 1.6 4.8 0.00 0.00 0.00 75 1011.5
20260507085252 20 0 4.8 0.0 0.00 0.00 0.00 75 1011.7
20260507085152 20 90 0.0 4.8 0.00 0.00 0.00 75 1011.3
20260507085052 20 90 0.0 4.8 0.00 0.00 0.00 75 1011.4
20260507084952 20 0 0.0 4.8 0.00 0.00 0.00 75 1011.5
20260507084852 20 0 0.0 4.8 0.00 0.00 0.00 75 1011.4
20260507084752 20 90 0.0 4.8 0.00 0.00 0.00 75 1011.4
20260507084652 20 0 0.0 4.8 0.00 0.00 0.00 75 1011.2
20260507084552 20 315 0.0 4.8 0.00 0.00 0.00 75 1011.4
20260507084452 20 0 0.0 4.8 0.00 0.00 0.00 75 1011.3
20260507084352 20 45 0.0 4.8 0.00 0.00 0.00 76 1011.3
20260507084252 20 45 1.6 8.0 0.00 0.00 0.00 76 1011.3
20260507084152 20 45 0.0 9.7 0.00 0.00 0.00 76 1011.2
20260507084052 20 225 0.0 9.7 0.00 0.00 0.00 75 1011.2
20260507083952 20 0 0.0 9.7 0.00 0.00 0.00 76 1011.2
20260507083852 20 0 9.7 0.0 0.00 0.00 0.00 76 1011.2
20260507083752 20 180 0.0 9.7 0.00 0.00 0.00 76 1011.1
20260507083652 20 90 1.6 9.7 0.00 0.00 0.00 76 1011.1
20260507083552 20 45 1.6 9.7 0.00 0.00 0.00 75 1011.1
20260507083452 20 0 3.2 9.7 0.00 0.00 0.00 75 1011.0
20260507083352 20 90 3.2 9.7 0.00 0.00 0.00 75 1011.2
20260507083252 20 45 3.2 11.3 0.00 0.00 0.00 75 1010.9
20260507083152 20 90 1.6 11.3 0.00 0.00 0.00 75 1011.0
20260507082952 20 180 4.8 11.3 0.00 0.00 0.00 75 1011.0
20260507082852 20 90 3.2 11.3 0.00 0.00 0.00 75 1011.0
20260507082752 20 180 1.6 11.3 0.00 0.00 0.00 75 1011.0
20260507082652 20 45 1.6 11.3 0.00 0.00 0.00 75 1011.0
20260507082552 20 0 1.6 14.5 0.00 0.00 0.00 75 1011.0
20260507082452 20 315 4.8 14.5 0.00 0.00 0.00 75 1011.0
20260507082352 20 90 3.2 14.5 0.00 0.00 0.00 75 1011.0
20260507082252 20 0 1.6 14.5 0.00 0.00 0.00 76 1011.1
20260507082152 20 45 1.6 14.5 0.00 0.00 0.00 76 1011.1
20260507082052 20 90 1.6 14.5 0.00 0.00 0.00 76 1010.9
20260507081952 20 180 4.8 14.5 0.00 0.00 0.00 76 1011.0
20260507081852 20 0 4.8 14.5 0.00 0.00 0.00 75 1011.0
20260507081752 20 90 4.8 14.5 0.00 0.00 0.00 75 1010.9
20260507081652 20 45 4.8 14.5 0.00 0.00 0.00 75 1011.0
20260507081552 20 45 4.8 9.7 0.00 0.00 0.00 75 1011.0
20260507081452 21 45 4.8 9.7 0.00 0.00 0.00 75 1010.9
20260507081352 21 90 4.8 11.3 0.00 0.00 0.00 75 1010.9
20260507081252 21 45 4.8 11.3 0.00 0.00 0.00 75 1010.9
20260507081152 21 0 4.8 11.3 0.00 0.00 0.00 75 1010.8
20260507081052 21 90 3.2 11.3 0.00 0.00 0.00 75 1010.7
20260507080952 21 90 1.6 11.3 0.00 0.00 0.00 76 1010.6
20260507080852 21 0 3.2 11.3 0.00 0.00 0.00 76 1010.6
20260507080752 21 90 3.2 11.3 0.00 0.00 0.00 76 1010.8
20260507080652 21 90 3.2 11.3 0.00 0.00 0.00 76 1010.8
20260507080552 21 0 4.8 11.3 0.00 0.00 0.00 76 1010.7
20260507080452 21 0 3.2 11.3 0.00 0.00 0.00 76 1010.6
20260507080352 21 45 3.2 11.3 0.00 0.00 0.00 76 1010.5
20260507080252 21 180 4.8 11.3 0.00 0.00 0.00 76 1010.6
20260507080152 21 45 3.2 11.3 0.00 0.00 0.00 76 1010.4
20260507080052 21 0 0.0 6.4 0.00 0.00 0.00 76 1010.3
20260507075952 21 0 1.6 6.4 0.00 0.00 0.00 76 1010.5
20260507075852 21 180 1.6 6.4 0.00 0.00 0.00 76 1010.5
20260507075752 21 180 3.2 6.4 0.00 0.00 0.00 76 1010.4
20260507075652 21 180 1.6 6.4 0.00 0.00 0.00 76 1010.4
20260507075552 21 45 1.6 6.4 0.00 0.00 0.00 76 1010.5
20260507075452 21 180 3.2 11.3 0.00 0.00 0.00 76 1010.4
20260507075352 21 315 3.2 11.3 0.00 0.00 0.00 76 1010.3
20260507075252 21 90 3.2 11.3 0.00 0.00 0.00 76 1010.4
20260507075152 21 45 3.2 11.3 0.00 0.00 0.00 76 1010.4
20260507075052 21 45 3.2 11.3 0.00 0.00 0.00 76 1010.2
20260507074952 21 90 3.2 11.3 0.00 0.00 0.00 76 1010.3
20260507074852 21 90 1.6 11.3 0.00 0.00 0.00 76 1010.3
20260507074752 21 315 1.6 11.3 0.00 0.00 0.00 76 1010.5
20260507074652 21 45 3.2 11.3 0.00 0.00 0.00 76 1010.3
20260507074552 21 45 3.2 11.3 0.00 0.00 0.00 76 1010.4
20260507074452 21 45 1.6 9.7 0.00 0.00 0.00 76 1010.3
20260507074352 21 90 0.0 9.7 0.00 0.00 0.00 76 1010.2
20260507074252 21 90 1.6 14.5 0.00 0.00 0.00 76 1010.3
20260507074152 21 180 3.2 14.5 0.00 0.00 0.00 76 1010.2
20260507074052 21 0 3.2 14.5 0.00 0.00 0.00 76 1010.2
20260507073952 21 0 3.2 14.5 0.00 0.00 0.00 76 1010.2
20260507073852 21 0 3.2 14.5 0.00 0.00 0.00 76 1010.3
20260507073752 21 45 3.2 14.5 0.00 0.00 0.00 76 1010.1
20260507073652 21 90 3.2 14.5 0.00 0.00 0.00 76 1010.2
20260507073552 21 0 4.8 14.5 0.00 0.00 0.00 76 1010.1
20260507073452 21 45 4.8 14.5 0.00 0.00 0.00 76 1010.3
20260507073352 21 45 4.8 14.5 0.00 0.00 0.00 76 1010.1
20260507073252 21 90 3.2 14.5 0.00 0.00 0.00 76 1010.1
20260507073151 -17 101 48.3 0.0 0.00 0.00 0.00
20260507073052 21 180 4.8 12.9 0.00 0.00 0.00 77 1010.1
20260507072952 21 45 3.2 12.9 0.00 0.00 0.00 77 1010.1
20260507072852 21 315 1.6 12.9 0.00 0.00 0.00 77 1010.2
20260507072751 21 90 1.6 12.9 0.00 0.00 0.00 77 1010.1
20260507072652 21 45 3.2 12.9 0.00 0.00 0.00 77 1010.0
20260507072552 21 0 4.8 12.9 0.00 0.00 0.00 76 1010.3
20260507072452 21 45 4.8 12.9 0.00 0.00 0.00 77 1010.2
20260507072352 21 180 3.2 12.9 0.00 0.00 0.00 77 1010.1
20260507072252 21 0 3.2 9.7 0.00 0.00 0.00 77 1010.3
20260507072152 21 45 3.2 9.7 0.00 0.00 0.00 77 1010.2
20260507072052 21 0 3.2 12.9 0.00 0.00 0.00 77 1010.3
20260507071952 21 0 3.2 12.9 0.00 0.00 0.00 77 1010.2
20260507071852 21 45 4.8 12.9 0.00 0.00 0.00 77 1010.3
20260507071752 22 45 4.8 12.9 0.00 0.00 0.00 77 1010.3
20260507071652 22 45 4.8 12.9 0.00 0.00 0.00 77 1010.2
20260507071552 22 45 4.8 12.9 0.00 0.00 0.00 77 1010.0
20260507071452 22 45 4.8 12.9 0.00 0.00 0.00 77 1010.2
20260507071352 22 0 4.8 12.9 0.00 0.00 0.00 77 1010.2
20260507071252 22 45 4.8 12.9 0.00 0.00 0.00 77 1010.2
20260507071152 22 90 4.8 12.9 0.00 0.00 0.00 77 1010.2
20260507071052 22 45 4.8 12.9 0.00 0.00 0.00 77 1010.2
20260507070952 22 90 3.2 11.3 0.00 0.00 0.00 77 1010.2
20260507070852 22 180 3.2 12.9 0.00 0.00 0.00 77 1010.2
20260507070752 22 0 3.2 12.9 0.00 0.00 0.00 77 1010.2
20260507070652 22 90 1.6 12.9 0.00 0.00 0.00 77 1010.2
20260507070552 22 0 0.0 12.9 0.00 0.00 0.00 77 1010.2
20260507070452 22 90 0.0 12.9 0.00 0.00 0.00 77 1010.2
20260507070352 22 90 1.6 12.9 0.00 0.00 0.00 77 1010.2
20260507070252 22 90 1.6 12.9 0.00 0.00 0.00 77 1010.1
20260507070151 22 45 1.6 12.9 0.00 0.00 0.00 76 1010.0
20260507070052 22 45 4.8 12.9 0.00 0.00 0.00 76 1009.9
20260507065952 22 45 6.4 12.9 0.00 0.00 0.00 76 1010.0
20260507065852 22 45 4.8 12.9 0.00 0.00 0.00 76 1009.9
20260507065752 22 0 1.6 12.9 0.00 0.00 0.00 76 1010.1
20260507065652 22 225 4.8 12.9 0.00 0.00 0.00 75 1009.9
20260507065552 22 90 4.8 12.9 0.00 0.00 0.00 75 1010.1
20260507065452 22 45 4.8 12.9 0.00 0.00 0.00 75 1009.7
20260507065352 22 90 4.8 12.9 0.00 0.00 0.00 75 1009.8
20260507065252 22 0 4.8 12.9 0.00 0.00 0.00 75 1009.9
20260507065151 22 45 4.8 12.9 0.00 0.00 0.00 74 1009.9